GFSGBSN_prec_pwat_087.txt.gz
Precipitable_Water
1.35 1.31 1.27 1.23 1.18 1.12 1.07 1.03 1.00 0.95 0.90 0.87 0.85 0.83 0.78 0.74 0.71 0.69 0.65 0.60 0.57 0.54 0.52 0.53 0.56 0.57 0.47 0.37 0.32 0.42 0.38 0.40 0.47 0.49 0.44 0.35 0.32 0.30 0.30 0.30 0.30 0.32 0.33 0.37 0.38 0.34 0.33
1.36 1.30 1.27 1.23 1.17 1.11 1.07 1.04 0.99 0.93 0.89 0.88 0.86 0.82 0.77 0.75 0.71 0.68 0.64 0.59 0.55 0.54 0.55 0.56 0.58 0.60 0.46 0.31 0.39 0.36 0.32 0.35 0.36 0.46 0.44 0.42 0.35 0.35 0.31 0.32 0.29 0.32 0.35 0.34 0.37 0.34 0.35
1.34 1.30 1.27 1.21 1.15 1.13 1.08 1.02 0.96 0.93 0.92 0.90 0.86 0.80 0.76 0.70 0.67 0.65 0.60 0.54 0.52 0.54 0.57 0.59 0.62 0.57 0.44 0.37 0.47 0.41 0.38 0.32 0.33 0.40 0.41 0.44 0.47 0.45 0.38 0.33 0.35 0.37 0.33 0.32 0.31 0.29 0.28
1.31 1.28 1.25 1.21 1.14 1.12 1.05 0.99 0.96 0.94 0.90 0.85 0.79 0.73 0.68 0.65 0.63 0.60 0.53 0.52 0.51 0.54 0.58 0.59 0.59 0.54 0.35 0.47 0.45 0.43 0.43 0.39 0.37 0.34 0.36 0.44 0.48 0.44 0.38 0.36 0.33 0.27 0.26 0.22 0.24 0.27 0.31
1.28 1.24 1.21 1.16 1.12 1.07 1.02 0.99 0.96 0.92 0.84 0.77 0.72 0.68 0.63 0.61 0.58 0.51 0.48 0.48 0.49 0.54 0.54 0.54 0.51 0.47 0.36 0.48 0.43 0.55 0.53 0.44 0.41 0.35 0.34 0.35 0.36 0.36 0.37 0.28 0.24 0.26 0.23 0.25 0.26 0.29 0.32
1.24 1.20 1.17 1.15 1.10 1.05 0.98 0.95 0.92 0.86 0.80 0.76 0.71 0.65 0.61 0.56 0.50 0.45 0.45 0.45 0.49 0.52 0.56 0.60 0.55 0.39 0.41 0.37 0.41 0.50 0.51 0.49 0.43 0.42 0.35 0.33 0.31 0.27 0.30 0.28 0.21 0.20 0.21 0.22 0.23 0.27 0.31
1.16 1.14 1.13 1.11 1.07 1.01 0.96 0.93 0.90 0.83 0.78 0.75 0.69 0.62 0.56 0.50 0.45 0.44 0.42 0.44 0.41 0.43 0.39 0.24 0.25 0.23 0.19 0.25 0.27 0.22 0.37 0.41 0.42 0.40 0.31 0.32 0.27 0.25 0.29 0.32 0.33 0.31 0.27 0.25 0.27 0.26 0.24
1.02 1.09 1.04 1.06 1.02 0.98 0.95 0.91 0.88 0.81 0.76 0.70 0.61 0.54 0.50 0.45 0.41 0.44 0.43 0.30 0.26 0.30 0.19 0.24 0.29 0.30 0.35 0.39 0.28 0.29 0.26 0.22 0.28 0.27 0.34 0.28 0.25 0.30 0.31 0.30 0.28 0.28 0.29 0.24 0.24 0.27 0.28
0.97 0.97 0.96 0.97 0.99 0.97 0.92 0.84 0.81 0.74 0.69 0.60 0.53 0.49 0.45 0.41 0.39 0.41 0.34 0.30 0.36 0.34 0.21 0.21 0.32 0.32 0.33 0.38 0.31 0.31 0.30 0.27 0.21 0.22 0.25 0.26 0.30 0.37 0.30 0.29 0.27 0.23 0.22 0.25 0.26 0.29 0.32
0.96 0.94 0.96 0.95 0.93 0.89 0.82 0.76 0.73 0.68 0.61 0.53 0.46 0.44 0.40 0.38 0.36 0.31 0.35 0.33 0.37 0.38 0.21 0.18 0.31 0.32 0.27 0.31 0.33 0.38 0.37 0.29 0.24 0.21 0.25 0.25 0.34 0.33 0.33 0.30 0.32 0.26 0.28 0.27 0.27 0.28 0.22
0.94 0.92 0.92 0.92 0.86 0.80 0.77 0.73 0.65 0.55 0.49 0.47 0.45 0.41 0.37 0.36 0.32 0.29 0.29 0.34 0.40 0.38 0.11 0.20 0.31 0.38 0.21 0.25 0.25 0.37 0.36 0.30 0.20 0.22 0.24 0.21 0.28 0.29 0.29 0.32 0.33 0.29 0.34 0.36 0.36 0.32 0.31
0.85 0.87 0.87 0.86 0.82 0.82 0.73 0.65 0.56 0.51 0.49 0.45 0.41 0.37 0.37 0.39 0.37 0.32 0.34 0.35 0.36 0.21 0.10 0.16 0.21 0.16 0.13 0.22 0.25 0.29 0.28 0.31 0.29 0.20 0.21 0.23 0.31 0.33 0.33 0.37 0.37 0.36 0.36 0.37 0.32 0.29 0.23
0.85 0.85 0.85 0.83 0.81 0.72 0.61 0.55 0.51 0.47 0.43 0.43 0.39 0.36 0.36 0.36 0.31 0.34 0.34 0.32 0.20 0.10 0.12 0.14 0.15 0.13 0.10 0.15 0.17 0.21 0.19 0.23 0.23 0.22 0.19 0.24 0.23 0.28 0.34 0.33 0.40 0.35 0.33 0.25 0.24 0.25 0.22
0.81 0.80 0.82 0.79 0.71 0.61 0.54 0.49 0.46 0.45 0.41 0.38 0.35 0.33 0.34 0.34 0.37 0.36 0.33 0.22 0.10 0.11 0.11 0.14 0.12 0.09 0.06 0.13 0.14 0.13 0.12 0.15 0.21 0.26 0.21 0.20 0.19 0.28 0.27 0.31 0.34 0.37 0.35 0.26 0.18 0.20 0.27
0.76 0.72 0.71 0.67 0.61 0.56 0.50 0.45 0.41 0.39 0.36 0.35 0.32 0.35 0.36 0.35 0.38 0.35 0.24 0.12 0.11 0.13 0.14 0.12 0.09 0.07 0.08 0.14 0.11 0.08 0.10 0.16 0.26 0.39 0.31 0.25 0.23 0.33 0.39 0.37 0.36 0.33 0.31 0.35 0.26 0.26 0.24
0.70 0.70 0.68 0.61 0.56 0.49 0.44 0.43 0.41 0.40 0.36 0.33 0.34 0.32 0.29 0.34 0.35 0.29 0.17 0.12 0.12 0.14 0.14 0.13 0.08 0.09 0.09 0.11 0.10 0.08 0.09 0.26 0.30 0.37 0.38 0.27 0.22 0.36 0.37 0.41 0.38 0.36 0.42 0.32 0.31 0.22 0.20
0.66 0.65 0.66 0.60 0.51 0.43 0.39 0.39 0.40 0.37 0.37 0.32 0.29 0.25 0.31 0.32 0.35 0.22 0.15 0.13 0.13 0.17 0.16 0.14 0.12 0.12 0.13 0.13 0.14 0.13 0.14 0.24 0.32 0.31 0.37 0.35 0.31 0.29 0.36 0.33 0.33 0.35 0.36 0.40 0.38 0.33 0.25
0.60 0.55 0.58 0.54 0.48 0.42 0.40 0.38 0.37 0.40 0.35 0.33 0.25 0.21 0.30 0.35 0.22 0.18 0.16 0.17 0.17 0.17 0.19 0.17 0.18 0.17 0.17 0.18 0.16 0.16 0.16 0.19 0.37 0.31 0.23 0.39 0.32 0.24 0.31 0.38 0.44 0.48 0.39 0.38 0.29 0.26 0.30
0.54 0.54 0.51 0.46 0.42 0.42 0.39 0.39 0.39 0.36 0.34 0.30 0.22 0.21 0.27 0.34 0.17 0.17 0.19 0.17 0.17 0.16 0.17 0.17 0.17 0.18 0.19 0.18 0.16 0.18 0.19 0.24 0.28 0.30 0.26 0.35 0.32 0.23 0.24 0.36 0.39 0.35 0.43 0.44 0.44 0.42 0.33
0.49 0.52 0.46 0.43 0.41 0.41 0.40 0.37 0.34 0.36 0.34 0.35 0.23 0.17 0.24 0.24 0.22 0.19 0.15 0.15 0.16 0.19 0.17 0.19 0.18 0.20 0.21 0.20 0.22 0.22 0.23 0.28 0.32 0.28 0.35 0.37 0.29 0.26 0.22 0.27 0.36 0.30 0.34 0.40 0.41 0.33 0.31
0.46 0.49 0.45 0.40 0.47 0.46 0.44 0.37 0.35 0.35 0.33 0.35 0.25 0.19 0.23 0.16 0.19 0.18 0.17 0.15 0.15 0.15 0.19 0.21 0.19 0.23 0.22 0.17 0.18 0.17 0.24 0.23 0.25 0.34 0.35 0.36 0.25 0.30 0.30 0.40 0.41 0.37 0.38 0.38 0.36 0.37 0.31
0.40 0.44 0.42 0.44 0.46 0.41 0.38 0.35 0.37 0.34 0.33 0.31 0.18 0.19 0.19 0.19 0.18 0.18 0.16 0.16 0.14 0.15 0.17 0.17 0.18 0.19 0.20 0.18 0.18 0.17 0.19 0.21 0.23 0.33 0.28 0.36 0.26 0.31 0.32 0.32 0.31 0.28 0.30 0.30 0.28 0.26 0.23
0.46 0.43 0.43 0.39 0.43 0.40 0.38 0.35 0.35 0.35 0.37 0.28 0.27 0.29 0.26 0.18 0.20 0.19 0.18 0.16 0.16 0.17 0.18 0.18 0.18 0.18 0.17 0.20 0.23 0.26 0.26 0.26 0.26 0.25 0.26 0.31 0.30 0.31 0.26 0.30 0.25 0.21 0.25 0.24 0.26 0.30 0.34
0.48 0.45 0.44 0.38 0.42 0.38 0.41 0.36 0.35 0.33 0.37 0.32 0.30 0.27 0.24 0.18 0.19 0.19 0.19 0.20 0.19 0.19 0.17 0.19 0.19 0.18 0.21 0.29 0.29 0.27 0.23 0.23 0.26 0.25 0.32 0.30 0.31 0.32 0.25 0.24 0.17 0.29 0.31 0.28 0.24 0.35 0.35
0.46 0.42 0.41 0.38 0.42 0.42 0.40 0.38 0.40 0.35 0.33 0.35 0.30 0.31 0.27 0.20 0.20 0.20 0.21 0.21 0.22 0.23 0.22 0.21 0.22 0.26 0.31 0.26 0.20 0.16 0.17 0.24 0.21 0.24 0.30 0.38 0.34 0.28 0.23 0.23 0.21 0.26 0.32 0.29 0.27 0.36 0.41
0.44 0.40 0.40 0.40 0.42 0.41 0.38 0.37 0.38 0.40 0.37 0.41 0.36 0.39 0.32 0.26 0.22 0.24 0.23 0.23 0.21 0.21 0.22 0.25 0.26 0.30 0.30 0.25 0.21 0.15 0.15 0.20 0.20 0.18 0.31 0.35 0.35 0.31 0.21 0.17 0.16 0.33 0.35 0.35 0.33 0.25 0.42
0.44 0.39 0.39 0.46 0.44 0.41 0.42 0.43 0.42 0.38 0.43 0.44 0.42 0.41 0.35 0.26 0.29 0.28 0.23 0.23 0.27 0.25 0.23 0.23 0.27 0.25 0.34 0.25 0.23 0.22 0.20 0.25 0.19 0.19 0.22 0.25 0.26 0.23 0.22 0.19 0.23 0.35 0.33 0.33 0.21 0.31 0.45
0.45 0.41 0.40 0.43 0.43 0.41 0.43 0.41 0.38 0.37 0.42 0.45 0.40 0.47 0.38 0.29 0.30 0.32 0.32 0.25 0.27 0.28 0.21 0.27 0.23 0.29 0.29 0.25 0.26 0.26 0.28 0.24 0.22 0.25 0.26 0.23 0.22 0.21 0.22 0.19 0.18 0.37 0.34 0.27 0.36 0.42 0.41
0.42 0.46 0.45 0.42 0.42 0.46 0.44 0.38 0.38 0.35 0.40 0.44 0.40 0.49 0.48 0.34 0.31 0.38 0.35 0.36 0.35 0.33 0.30 0.28 0.30 0.31 0.33 0.27 0.27 0.28 0.28 0.29 0.27 0.21 0.33 0.26 0.32 0.31 0.31 0.29 0.39 0.40 0.39 0.41 0.42 0.41 0.42

GFSGBSN_prec_pwat_090.txt.gz
Precipitable_Water
1.47 1.45 1.41 1.39 1.33 1.27 1.25 1.20 1.17 1.12 1.06 1.01 0.99 0.94 0.90 0.87 0.82 0.78 0.75 0.69 0.66 0.64 0.60 0.60 0.62 0.63 0.54 0.45 0.42 0.55 0.48 0.42 0.44 0.42 0.45 0.41 0.32 0.29 0.27 0.30 0.35 0.34 0.35 0.38 0.41 0.41 0.41
1.44 1.43 1.42 1.38 1.33 1.29 1.24 1.20 1.15 1.10 1.05 1.00 0.99 0.94 0.91 0.86 0.81 0.77 0.72 0.68 0.64 0.62 0.61 0.60 0.62 0.63 0.47 0.33 0.46 0.47 0.42 0.37 0.37 0.47 0.44 0.44 0.37 0.35 0.29 0.29 0.29 0.32 0.28 0.27 0.28 0.32 0.30
1.39 1.38 1.39 1.36 1.33 1.29 1.25 1.20 1.17 1.12 1.05 1.02 0.99 0.94 0.89 0.82 0.76 0.72 0.67 0.64 0.61 0.61 0.61 0.59 0.61 0.60 0.44 0.36 0.46 0.51 0.47 0.39 0.34 0.34 0.40 0.47 0.44 0.38 0.38 0.35 0.37 0.36 0.32 0.34 0.34 0.35 0.33
1.35 1.32 1.32 1.30 1.27 1.26 1.22 1.20 1.17 1.11 1.05 1.00 0.94 0.88 0.83 0.77 0.71 0.68 0.64 0.59 0.57 0.57 0.59 0.60 0.61 0.57 0.35 0.44 0.49 0.42 0.44 0.42 0.42 0.36 0.33 0.42 0.48 0.42 0.41 0.44 0.37 0.30 0.29 0.24 0.26 0.26 0.25
1.26 1.26 1.28 1.26 1.24 1.20 1.22 1.18 1.14 1.10 1.04 0.97 0.89 0.84 0.79 0.74 0.70 0.63 0.55 0.53 0.52 0.54 0.55 0.54 0.54 0.51 0.29 0.50 0.39 0.52 0.53 0.45 0.47 0.42 0.35 0.34 0.33 0.35 0.39 0.35 0.29 0.29 0.23 0.24 0.23 0.26 0.28
1.15 1.11 1.14 1.14 1.10 1.11 1.12 1.12 1.09 1.04 0.97 0.95 0.90 0.81 0.74 0.71 0.64 0.55 0.52 0.50 0.55 0.57 0.61 0.62 0.56 0.43 0.46 0.38 0.43 0.44 0.49 0.46 0.41 0.40 0.31 0.29 0.27 0.24 0.27 0.27 0.21 0.24 0.22 0.20 0.20 0.24 0.27
1.05 1.02 0.98 1.02 0.96 1.01 1.01 1.02 1.00 1.00 0.96 0.88 0.83 0.76 0.70 0.66 0.55 0.51 0.50 0.53 0.51 0.54 0.56 0.38 0.40 0.35 0.36 0.28 0.35 0.27 0.25 0.32 0.37 0.33 0.30 0.33 0.25 0.21 0.24 0.25 0.25 0.26 0.26 0.25 0.27 0.30 0.29
1.05 0.98 0.96 0.93 0.94 0.98 0.96 0.95 0.93 0.93 0.88 0.83 0.80 0.74 0.64 0.55 0.46 0.51 0.51 0.42 0.36 0.40 0.23 0.30 0.26 0.26 0.32 0.38 0.29 0.35 0.28 0.21 0.24 0.22 0.28 0.28 0.22 0.25 0.27 0.29 0.27 0.26 0.25 0.23 0.24 0.32 0.32
1.07 1.02 0.99 0.92 0.93 0.95 0.93 0.88 0.88 0.84 0.82 0.78 0.71 0.60 0.51 0.46 0.45 0.47 0.39 0.35 0.39 0.38 0.25 0.30 0.31 0.34 0.34 0.36 0.32 0.33 0.31 0.24 0.20 0.21 0.23 0.21 0.25 0.30 0.28 0.27 0.25 0.23 0.22 0.23 0.22 0.25 0.32
0.95 0.95 0.93 0.92 0.87 0.92 0.94 0.89 0.85 0.78 0.71 0.64 0.56 0.50 0.46 0.43 0.45 0.39 0.44 0.36 0.40 0.39 0.20 0.28 0.29 0.34 0.31 0.27 0.34 0.40 0.35 0.30 0.26 0.21 0.21 0.19 0.26 0.26 0.28 0.27 0.28 0.21 0.29 0.28 0.27 0.24 0.21
0.96 0.86 0.91 0.94 0.90 0.94 0.92 0.84 0.80 0.72 0.65 0.57 0.51 0.45 0.40 0.44 0.44 0.38 0.38 0.37 0.40 0.43 0.15 0.27 0.38 0.43 0.24 0.21 0.24 0.32 0.41 0.28 0.19 0.20 0.23 0.18 0.23 0.23 0.24 0.26 0.32 0.24 0.30 0.27 0.30 0.31 0.30
0.87 0.87 0.88 0.91 0.87 0.88 0.84 0.79 0.78 0.72 0.58 0.49 0.45 0.40 0.40 0.44 0.44 0.40 0.39 0.37 0.39 0.24 0.15 0.19 0.25 0.22 0.13 0.17 0.22 0.29 0.31 0.34 0.30 0.22 0.20 0.17 0.23 0.25 0.26 0.29 0.28 0.30 0.28 0.28 0.32 0.32 0.23
0.88 0.87 0.88 0.86 0.84 0.83 0.81 0.79 0.70 0.56 0.50 0.44 0.42 0.40 0.35 0.42 0.40 0.43 0.36 0.39 0.26 0.16 0.17 0.18 0.18 0.16 0.12 0.09 0.12 0.21 0.19 0.23 0.22 0.23 0.24 0.27 0.24 0.25 0.28 0.26 0.30 0.33 0.28 0.20 0.20 0.23 0.20
0.84 0.85 0.84 0.82 0.82 0.81 0.78 0.65 0.55 0.53 0.49 0.45 0.37 0.36 0.41 0.40 0.42 0.40 0.38 0.30 0.15 0.15 0.15 0.18 0.14 0.11 0.09 0.08 0.09 0.17 0.13 0.12 0.15 0.26 0.22 0.18 0.15 0.26 0.34 0.28 0.26 0.28 0.28 0.20 0.18 0.19 0.24
0.81 0.81 0.80 0.80 0.79 0.75 0.65 0.59 0.54 0.47 0.41 0.40 0.35 0.37 0.42 0.43 0.41 0.38 0.31 0.20 0.18 0.18 0.17 0.13 0.09 0.09 0.09 0.12 0.16 0.13 0.12 0.09 0.21 0.33 0.24 0.24 0.23 0.35 0.35 0.34 0.27 0.26 0.29 0.34 0.29 0.31 0.25
0.77 0.77 0.78 0.75 0.71 0.64 0.56 0.52 0.48 0.46 0.41 0.35 0.37 0.36 0.35 0.35 0.37 0.34 0.25 0.17 0.16 0.17 0.15 0.12 0.09 0.10 0.10 0.13 0.12 0.13 0.12 0.17 0.30 0.39 0.36 0.26 0.19 0.28 0.34 0.44 0.35 0.30 0.34 0.28 0.31 0.22 0.19
0.72 0.74 0.73 0.70 0.64 0.57 0.53 0.50 0.46 0.39 0.35 0.39 0.35 0.32 0.39 0.30 0.36 0.29 0.18 0.19 0.17 0.18 0.15 0.13 0.13 0.12 0.13 0.13 0.14 0.14 0.15 0.18 0.33 0.30 0.28 0.27 0.26 0.17 0.29 0.38 0.34 0.30 0.26 0.34 0.37 0.32 0.25
0.69 0.74 0.72 0.65 0.56 0.50 0.45 0.43 0.39 0.37 0.37 0.36 0.34 0.25 0.36 0.34 0.27 0.25 0.20 0.19 0.19 0.16 0.19 0.16 0.17 0.16 0.16 0.17 0.16 0.16 0.16 0.19 0.32 0.35 0.27 0.31 0.22 0.15 0.16 0.32 0.48 0.44 0.30 0.34 0.30 0.29 0.31
0.65 0.65 0.65 0.58 0.51 0.46 0.40 0.38 0.40 0.37 0.41 0.40 0.28 0.27 0.25 0.37 0.20 0.20 0.22 0.17 0.16 0.16 0.17 0.17 0.16 0.17 0.18 0.16 0.15 0.17 0.20 0.26 0.34 0.31 0.27 0.30 0.21 0.14 0.13 0.19 0.39 0.43 0.38 0.41 0.42 0.43 0.33
0.59 0.58 0.54 0.48 0.44 0.43 0.39 0.40 0.37 0.37 0.40 0.39 0.27 0.22 0.28 0.28 0.24 0.22 0.19 0.15 0.16 0.20 0.15 0.17 0.17 0.18 0.18 0.19 0.22 0.19 0.22 0.28 0.32 0.28 0.32 0.30 0.21 0.18 0.17 0.24 0.34 0.34 0.38 0.40 0.40 0.34 0.35
0.55 0.57 0.51 0.46 0.43 0.42 0.39 0.37 0.37 0.33 0.38 0.39 0.30 0.26 0.27 0.20 0.21 0.20 0.18 0.16 0.15 0.15 0.19 0.19 0.18 0.20 0.20 0.18 0.20 0.19 0.21 0.22 0.23 0.31 0.32 0.30 0.18 0.22 0.27 0.29 0.32 0.35 0.41 0.38 0.37 0.38 0.35
0.54 0.53 0.46 0.42 0.44 0.43 0.40 0.37 0.35 0.31 0.39 0.37 0.20 0.25 0.20 0.25 0.20 0.18 0.16 0.18 0.16 0.16 0.17 0.16 0.17 0.19 0.19 0.17 0.19 0.18 0.21 0.21 0.21 0.25 0.31 0.32 0.18 0.22 0.21 0.26 0.30 0.30 0.41 0.42 0.43 0.42 0.39
0.47 0.45 0.39 0.44 0.43 0.40 0.38 0.35 0.34 0.34 0.43 0.32 0.26 0.31 0.30 0.21 0.21 0.19 0.21 0.18 0.17 0.18 0.19 0.18 0.17 0.17 0.16 0.18 0.20 0.22 0.23 0.22 0.20 0.20 0.21 0.24 0.21 0.21 0.14 0.25 0.32 0.29 0.31 0.32 0.30 0.42 0.41
0.47 0.44 0.42 0.39 0.44 0.41 0.39 0.33 0.31 0.36 0.40 0.38 0.33 0.29 0.25 0.17 0.20 0.20 0.19 0.20 0.19 0.20 0.18 0.20 0.21 0.19 0.22 0.30 0.28 0.23 0.20 0.19 0.20 0.21 0.24 0.23 0.26 0.27 0.21 0.26 0.20 0.29 0.32 0.32 0.41 0.43 0.41
0.48 0.47 0.44 0.41 0.44 0.42 0.42 0.36 0.34 0.32 0.39 0.40 0.34 0.34 0.28 0.23 0.21 0.20 0.20 0.21 0.22 0.24 0.23 0.24 0.27 0.26 0.28 0.24 0.18 0.15 0.14 0.18 0.22 0.23 0.25 0.29 0.30 0.25 0.23 0.25 0.28 0.30 0.33 0.31 0.33 0.35 0.41
0.52 0.48 0.46 0.42 0.44 0.42 0.39 0.35 0.36 0.32 0.39 0.42 0.36 0.40 0.32 0.28 0.22 0.26 0.22 0.23 0.22 0.20 0.20 0.26 0.31 0.32 0.27 0.24 0.19 0.13 0.14 0.25 0.23 0.19 0.27 0.32 0.35 0.29 0.29 0.21 0.18 0.34 0.39 0.38 0.34 0.26 0.42
0.49 0.45 0.43 0.43 0.43 0.42 0.37 0.37 0.36 0.37 0.40 0.45 0.41 0.40 0.33 0.28 0.34 0.28 0.25 0.22 0.24 0.23 0.21 0.24 0.30 0.27 0.32 0.24 0.21 0.20 0.19 0.26 0.22 0.19 0.22 0.26 0.30 0.26 0.26 0.23 0.31 0.39 0.40 0.31 0.19 0.27 0.43
0.49 0.45 0.42 0.45 0.42 0.41 0.41 0.43 0.42 0.37 0.40 0.44 0.44 0.45 0.36 0.29 0.33 0.32 0.31 0.25 0.25 0.25 0.21 0.29 0.23 0.29 0.27 0.24 0.25 0.25 0.24 0.26 0.26 0.27 0.29 0.25 0.24 0.24 0.26 0.21 0.22 0.40 0.34 0.27 0.39 0.43 0.42
0.47 0.43 0.43 0.41 0.43 0.41 0.42 0.47 0.38 0.36 0.38 0.45 0.40 0.46 0.45 0.33 0.30 0.36 0.32 0.33 0.31 0.33 0.27 0.27 0.29 0.32 0.33 0.27 0.27 0.28 0.27 0.32 0.29 0.24 0.33 0.29 0.34 0.31 0.33 0.30 0.42 0.41 0.36 0.39 0.41 0.39 0.40

GFSGBSN_prec_pwat_096.txt.gz
Precipitable_Water
1.26 1.29 1.27 1.28 1.30 1.30 1.33 1.30 1.30 1.30 1.26 1.26 1.21 1.16 1.14 1.11 1.09 1.06 1.02 0.97 0.90 0.86 0.81 0.75 0.73 0.77 0.66 0.50 0.49 0.52 0.56 0.59 0.55 0.49 0.40 0.37 0.34 0.28 0.26 0.28 0.31 0.31 0.34 0.37 0.40 0.41 0.39
1.18 1.22 1.23 1.25 1.25 1.27 1.28 1.26 1.26 1.23 1.21 1.18 1.15 1.12 1.12 1.11 1.07 1.03 1.00 0.94 0.89 0.85 0.79 0.74 0.77 0.78 0.60 0.45 0.50 0.58 0.62 0.58 0.54 0.48 0.45 0.45 0.40 0.43 0.37 0.33 0.29 0.29 0.30 0.31 0.33 0.33 0.34
1.02 1.15 1.20 1.26 1.30 1.31 1.28 1.25 1.28 1.22 1.18 1.16 1.11 1.06 1.09 1.07 1.02 0.94 0.91 0.90 0.88 0.83 0.79 0.77 0.78 0.76 0.59 0.47 0.48 0.58 0.57 0.53 0.53 0.49 0.37 0.43 0.43 0.36 0.39 0.34 0.38 0.35 0.29 0.32 0.32 0.32 0.31
0.83 0.94 0.98 1.07 1.22 1.29 1.30 1.24 1.20 1.29 1.14 1.15 1.10 1.06 1.03 1.00 0.93 0.84 0.77 0.81 0.79 0.77 0.75 0.73 0.79 0.73 0.48 0.46 0.54 0.52 0.53 0.52 0.49 0.46 0.45 0.39 0.41 0.36 0.36 0.42 0.37 0.32 0.32 0.25 0.31 0.32 0.31
0.71 0.77 0.86 0.97 1.02 1.10 1.14 1.16 1.12 1.19 1.14 1.12 1.13 1.03 0.97 0.90 0.86 0.80 0.76 0.74 0.70 0.68 0.69 0.77 0.68 0.60 0.40 0.62 0.54 0.56 0.55 0.47 0.47 0.50 0.49 0.47 0.39 0.34 0.35 0.32 0.29 0.30 0.23 0.26 0.29 0.33 0.30
0.71 0.76 0.83 0.89 0.95 0.94 0.96 1.02 1.12 1.09 1.11 1.17 1.13 1.05 0.87 0.81 0.82 0.75 0.74 0.63 0.64 0.61 0.68 0.76 0.70 0.53 0.46 0.43 0.45 0.52 0.58 0.53 0.45 0.46 0.40 0.37 0.32 0.26 0.29 0.28 0.20 0.22 0.22 0.22 0.22 0.30 0.29
0.70 0.77 0.84 0.89 0.91 0.95 0.97 1.03 1.00 1.06 1.05 1.06 1.01 0.95 0.83 0.78 0.75 0.71 0.61 0.56 0.48 0.47 0.56 0.41 0.40 0.37 0.48 0.52 0.44 0.39 0.40 0.38 0.37 0.34 0.29 0.31 0.27 0.21 0.20 0.21 0.21 0.21 0.20 0.20 0.23 0.26 0.26
0.67 0.78 0.86 0.91 0.94 0.94 0.95 0.99 1.00 1.01 0.94 0.98 0.90 0.88 0.77 0.77 0.72 0.63 0.62 0.55 0.51 0.44 0.29 0.39 0.47 0.48 0.50 0.49 0.27 0.38 0.41 0.30 0.25 0.20 0.26 0.26 0.20 0.22 0.28 0.28 0.25 0.23 0.19 0.18 0.20 0.24 0.26
0.74 0.81 0.89 0.94 0.99 0.97 0.98 0.95 0.99 0.90 0.94 0.89 0.81 0.78 0.83 0.71 0.58 0.60 0.60 0.49 0.57 0.49 0.23 0.20 0.22 0.29 0.33 0.37 0.30 0.36 0.39 0.31 0.22 0.19 0.22 0.21 0.20 0.28 0.28 0.27 0.25 0.23 0.21 0.20 0.19 0.23 0.24
0.82 0.87 0.93 0.95 0.97 0.97 0.95 1.01 0.89 0.91 0.83 0.79 0.83 0.82 0.77 0.61 0.51 0.53 0.46 0.51 0.49 0.40 0.17 0.22 0.24 0.26 0.34 0.39 0.31 0.42 0.43 0.36 0.27 0.20 0.22 0.21 0.23 0.21 0.20 0.21 0.24 0.18 0.27 0.26 0.23 0.21 0.16
0.90 0.92 0.96 0.98 0.98 0.95 0.96 0.93 0.93 0.91 0.83 0.80 0.86 0.81 0.64 0.60 0.57 0.46 0.48 0.51 0.45 0.41 0.15 0.31 0.32 0.46 0.40 0.30 0.32 0.35 0.43 0.36 0.23 0.22 0.20 0.19 0.21 0.19 0.19 0.19 0.25 0.20 0.26 0.24 0.25 0.22 0.22
0.98 0.98 1.04 0.99 0.96 0.93 0.93 0.86 0.85 0.87 0.88 0.79 0.70 0.66 0.65 0.45 0.55 0.55 0.52 0.49 0.40 0.23 0.14 0.31 0.39 0.36 0.29 0.24 0.23 0.32 0.35 0.38 0.30 0.23 0.24 0.24 0.27 0.26 0.22 0.22 0.24 0.24 0.23 0.26 0.25 0.23 0.16
1.02 1.06 0.98 0.93 0.94 0.92 0.89 0.87 0.81 0.81 0.79 0.72 0.66 0.57 0.50 0.54 0.51 0.58 0.50 0.41 0.22 0.19 0.27 0.25 0.27 0.27 0.21 0.16 0.16 0.17 0.16 0.24 0.17 0.14 0.13 0.17 0.16 0.19 0.27 0.22 0.26 0.26 0.21 0.16 0.15 0.15 0.12
0.81 0.84 0.88 0.88 0.88 0.85 0.80 0.77 0.75 0.75 0.74 0.65 0.59 0.54 0.51 0.54 0.60 0.59 0.44 0.34 0.21 0.24 0.24 0.26 0.24 0.21 0.16 0.15 0.14 0.13 0.14 0.15 0.22 0.22 0.18 0.14 0.11 0.20 0.26 0.26 0.25 0.23 0.22 0.18 0.14 0.14 0.15
0.82 0.84 0.82 0.83 0.84 0.82 0.79 0.78 0.78 0.77 0.73 0.68 0.61 0.48 0.50 0.49 0.55 0.50 0.39 0.20 0.20 0.25 0.26 0.24 0.21 0.17 0.16 0.16 0.15 0.15 0.14 0.19 0.25 0.25 0.16 0.16 0.14 0.27 0.26 0.29 0.31 0.28 0.24 0.30 0.24 0.24 0.21
0.81 0.80 0.80 0.80 0.80 0.79 0.79 0.78 0.77 0.73 0.63 0.54 0.44 0.44 0.39 0.56 0.48 0.46 0.32 0.25 0.24 0.27 0.25 0.22 0.16 0.15 0.12 0.14 0.14 0.15 0.14 0.23 0.24 0.28 0.28 0.22 0.13 0.20 0.19 0.20 0.22 0.31 0.37 0.25 0.27 0.17 0.15
0.78 0.78 0.78 0.76 0.76 0.76 0.75 0.73 0.65 0.57 0.52 0.51 0.46 0.39 0.44 0.44 0.49 0.37 0.20 0.22 0.21 0.24 0.23 0.18 0.15 0.12 0.12 0.13 0.14 0.14 0.15 0.21 0.23 0.23 0.25 0.21 0.17 0.14 0.16 0.13 0.13 0.17 0.24 0.35 0.35 0.27 0.18
0.73 0.73 0.73 0.73 0.72 0.72 0.73 0.62 0.54 0.47 0.46 0.55 0.46 0.31 0.45 0.43 0.26 0.27 0.23 0.23 0.21 0.20 0.19 0.16 0.16 0.15 0.14 0.14 0.12 0.12 0.12 0.17 0.26 0.23 0.17 0.22 0.17 0.11 0.12 0.14 0.15 0.15 0.15 0.28 0.25 0.26 0.28
0.71 0.71 0.70 0.68 0.66 0.66 0.61 0.56 0.51 0.51 0.53 0.52 0.43 0.27 0.32 0.43 0.23 0.21 0.23 0.22 0.22 0.19 0.17 0.16 0.16 0.17 0.17 0.15 0.11 0.14 0.16 0.26 0.25 0.22 0.20 0.22 0.16 0.10 0.08 0.11 0.24 0.22 0.24 0.27 0.32 0.35 0.27
0.71 0.69 0.67 0.66 0.63 0.57 0.56 0.54 0.47 0.47 0.59 0.54 0.36 0.19 0.27 0.38 0.33 0.23 0.19 0.20 0.17 0.19 0.16 0.16 0.16 0.17 0.16 0.15 0.18 0.16 0.16 0.23 0.23 0.25 0.28 0.27 0.20 0.15 0.10 0.12 0.18 0.17 0.20 0.23 0.26 0.24 0.27
0.69 0.68 0.65 0.64 0.62 0.52 0.48 0.48 0.47 0.47 0.53 0.50 0.41 0.30 0.27 0.18 0.23 0.23 0.22 0.18 0.15 0.14 0.18 0.19 0.17 0.18 0.16 0.14 0.14 0.14 0.16 0.17 0.19 0.25 0.27 0.24 0.16 0.18 0.18 0.19 0.19 0.18 0.16 0.18 0.19 0.24 0.28
0.65 0.62 0.58 0.57 0.56 0.51 0.48 0.42 0.37 0.47 0.54 0.42 0.30 0.25 0.26 0.22 0.22 0.19 0.17 0.16 0.16 0.17 0.17 0.15 0.14 0.17 0.16 0.14 0.14 0.12 0.15 0.14 0.13 0.19 0.20 0.25 0.16 0.19 0.12 0.16 0.16 0.18 0.18 0.21 0.22 0.32 0.33
0.61 0.58 0.55 0.52 0.50 0.45 0.41 0.36 0.39 0.50 0.51 0.34 0.34 0.35 0.26 0.22 0.20 0.16 0.17 0.18 0.17 0.18 0.18 0.19 0.17 0.15 0.13 0.15 0.18 0.18 0.19 0.18 0.17 0.15 0.14 0.16 0.16 0.14 0.08 0.14 0.17 0.11 0.14 0.19 0.32 0.38 0.40
0.59 0.55 0.52 0.50 0.47 0.39 0.37 0.37 0.42 0.47 0.42 0.39 0.36 0.32 0.20 0.15 0.19 0.19 0.20 0.19 0.17 0.18 0.16 0.20 0.22 0.19 0.22 0.28 0.26 0.22 0.18 0.13 0.12 0.12 0.15 0.13 0.13 0.14 0.10 0.18 0.10 0.29 0.41 0.40 0.37 0.40 0.43
0.54 0.50 0.53 0.48 0.44 0.39 0.42 0.37 0.43 0.44 0.45 0.38 0.39 0.32 0.25 0.17 0.20 0.20 0.19 0.19 0.20 0.21 0.20 0.21 0.23 0.27 0.29 0.25 0.17 0.11 0.11 0.16 0.18 0.27 0.22 0.17 0.16 0.15 0.15 0.16 0.23 0.31 0.38 0.38 0.36 0.34 0.43
0.55 0.48 0.46 0.49 0.49 0.40 0.35 0.39 0.39 0.41 0.40 0.39 0.39 0.41 0.32 0.21 0.21 0.24 0.21 0.20 0.15 0.15 0.15 0.18 0.24 0.29 0.27 0.21 0.16 0.12 0.11 0.16 0.20 0.24 0.24 0.25 0.24 0.20 0.22 0.18 0.17 0.31 0.42 0.48 0.48 0.29 0.42
0.54 0.48 0.44 0.46 0.42 0.37 0.37 0.35 0.37 0.38 0.38 0.37 0.37 0.45 0.33 0.23 0.28 0.26 0.19 0.17 0.19 0.17 0.14 0.19 0.21 0.21 0.29 0.20 0.19 0.17 0.17 0.26 0.21 0.23 0.24 0.25 0.25 0.22 0.23 0.21 0.26 0.38 0.44 0.47 0.26 0.26 0.39
0.52 0.47 0.43 0.46 0.42 0.40 0.40 0.35 0.34 0.36 0.43 0.36 0.34 0.44 0.34 0.26 0.30 0.31 0.26 0.18 0.19 0.20 0.14 0.19 0.21 0.24 0.23 0.19 0.21 0.22 0.22 0.26 0.26 0.32 0.29 0.26 0.24 0.24 0.25 0.21 0.19 0.41 0.39 0.29 0.36 0.39 0.39
0.50 0.45 0.43 0.47 0.41 0.42 0.40 0.36 0.33 0.38 0.44 0.42 0.28 0.39 0.41 0.27 0.26 0.33 0.29 0.29 0.25 0.27 0.24 0.26 0.25 0.26 0.28 0.25 0.27 0.28 0.25 0.28 0.29 0.23 0.37 0.25 0.31 0.28 0.29 0.26 0.38 0.41 0.39 0.43 0.43 0.39 0.39

GFSGBSN_prec_pwat_099.txt.gz
Precipitable_Water
1.15 1.18 1.22 1.21 1.20 1.21 1.25 1.23 1.23 1.22 1.23 1.22 1.17 1.16 1.12 1.10 1.09 1.10 1.06 1.03 0.97 0.92 0.90 0.87 0.87 0.88 0.75 0.57 0.56 0.55 0.64 0.63 0.63 0.57 0.47 0.41 0.35 0.31 0.27 0.30 0.31 0.29 0.30 0.31 0.32 0.33 0.33
0.79 0.96 1.04 1.11 1.14 1.13 1.13 1.15 1.17 1.17 1.20 1.20 1.19 1.12 1.06 1.04 1.01 1.01 0.97 0.92 0.89 0.86 0.84 0.82 0.86 0.89 0.72 0.54 0.57 0.62 0.64 0.67 0.60 0.54 0.52 0.45 0.43 0.47 0.40 0.38 0.34 0.35 0.33 0.32 0.33 0.33 0.33
0.64 0.67 0.79 0.86 0.95 1.00 1.06 1.19 1.14 1.24 1.19 1.19 1.18 1.10 1.06 1.04 1.00 0.98 0.92 0.84 0.80 0.78 0.75 0.76 0.81 0.80 0.66 0.57 0.53 0.64 0.70 0.61 0.60 0.57 0.48 0.51 0.51 0.41 0.38 0.34 0.39 0.37 0.31 0.33 0.34 0.34 0.32
0.62 0.64 0.65 0.74 0.81 0.80 0.90 1.10 1.14 1.19 1.26 1.27 1.23 1.17 1.13 1.09 1.04 0.97 0.87 0.80 0.75 0.72 0.73 0.75 0.81 0.74 0.52 0.56 0.58 0.54 0.49 0.50 0.52 0.54 0.52 0.48 0.47 0.41 0.37 0.38 0.38 0.35 0.34 0.27 0.34 0.34 0.33
0.57 0.59 0.64 0.65 0.74 0.76 0.83 0.96 0.96 1.11 1.16 1.13 1.19 1.14 1.08 1.08 1.09 0.89 0.81 0.77 0.73 0.70 0.69 0.75 0.70 0.59 0.41 0.56 0.51 0.57 0.54 0.41 0.47 0.47 0.48 0.50 0.44 0.39 0.37 0.33 0.31 0.33 0.26 0.27 0.30 0.37 0.34
0.55 0.56 0.59 0.63 0.69 0.78 0.84 0.82 0.89 0.97 1.12 1.04 1.10 1.09 1.06 1.04 1.01 0.91 0.83 0.73 0.67 0.71 0.68 0.73 0.67 0.44 0.43 0.43 0.51 0.48 0.56 0.55 0.49 0.49 0.44 0.43 0.39 0.32 0.30 0.29 0.22 0.25 0.25 0.26 0.25 0.28 0.28
0.57 0.57 0.57 0.63 0.64 0.73 0.83 0.82 0.89 0.96 0.93 0.95 1.04 0.97 1.02 0.97 0.93 0.89 0.79 0.69 0.57 0.49 0.55 0.43 0.40 0.32 0.38 0.45 0.47 0.41 0.46 0.49 0.44 0.39 0.32 0.34 0.29 0.24 0.24 0.24 0.24 0.24 0.23 0.21 0.22 0.26 0.25
0.63 0.62 0.60 0.64 0.67 0.72 0.84 0.91 0.90 0.93 0.89 0.92 0.97 0.99 0.98 0.96 0.89 0.80 0.76 0.52 0.52 0.54 0.40 0.50 0.46 0.41 0.38 0.49 0.37 0.32 0.39 0.29 0.28 0.25 0.29 0.29 0.22 0.23 0.26 0.29 0.28 0.27 0.23 0.21 0.24 0.26 0.25
0.66 0.63 0.63 0.70 0.71 0.76 0.85 0.90 0.97 0.89 0.91 0.94 0.97 0.94 0.88 0.85 0.77 0.69 0.53 0.53 0.61 0.62 0.36 0.31 0.32 0.37 0.39 0.44 0.33 0.27 0.36 0.31 0.26 0.22 0.21 0.21 0.22 0.30 0.27 0.26 0.25 0.24 0.23 0.22 0.21 0.25 0.26
0.71 0.69 0.70 0.73 0.74 0.83 0.91 0.93 0.94 0.94 0.95 0.92 0.91 0.98 0.90 0.87 0.63 0.55 0.47 0.60 0.66 0.48 0.19 0.18 0.25 0.25 0.28 0.34 0.27 0.33 0.39 0.31 0.25 0.21 0.22 0.22 0.23 0.22 0.21 0.21 0.24 0.19 0.25 0.24 0.22 0.21 0.16
0.61 0.75 0.76 0.78 0.80 0.87 0.95 0.99 0.97 0.97 0.93 0.92 0.95 0.87 0.79 0.74 0.64 0.55 0.58 0.64 0.57 0.40 0.12 0.21 0.24 0.38 0.32 0.29 0.32 0.32 0.42 0.38 0.27 0.24 0.25 0.19 0.23 0.23 0.21 0.21 0.24 0.20 0.25 0.23 0.23 0.21 0.20
0.62 0.76 0.82 0.86 0.91 0.96 0.95 0.93 0.92 0.94 0.90 0.91 0.85 0.83 0.82 0.69 0.66 0.68 0.70 0.60 0.47 0.21 0.14 0.27 0.37 0.35 0.34 0.33 0.32 0.38 0.40 0.41 0.37 0.27 0.26 0.24 0.30 0.26 0.21 0.23 0.24 0.26 0.23 0.22 0.22 0.20 0.13
0.69 0.83 0.90 0.94 0.97 0.96 0.95 0.91 0.89 0.90 0.88 0.88 0.84 0.83 0.76 0.66 0.50 0.67 0.63 0.45 0.21 0.17 0.23 0.25 0.33 0.36 0.29 0.23 0.22 0.24 0.30 0.31 0.27 0.17 0.16 0.19 0.17 0.22 0.27 0.21 0.26 0.26 0.22 0.15 0.14 0.13 0.11
0.66 0.74 0.85 0.94 0.93 0.99 0.97 0.92 0.86 0.83 0.85 0.85 0.79 0.71 0.63 0.63 0.69 0.67 0.49 0.30 0.15 0.17 0.24 0.26 0.28 0.30 0.23 0.20 0.19 0.18 0.22 0.20 0.27 0.25 0.19 0.14 0.12 0.21 0.26 0.23 0.19 0.24 0.25 0.18 0.12 0.12 0.13
0.70 0.70 0.76 0.79 0.82 0.89 0.86 0.82 0.81 0.79 0.83 0.78 0.72 0.61 0.55 0.62 0.63 0.61 0.37 0.22 0.18 0.24 0.25 0.25 0.26 0.22 0.22 0.20 0.18 0.18 0.21 0.23 0.26 0.25 0.16 0.15 0.15 0.26 0.25 0.23 0.20 0.21 0.20 0.30 0.24 0.20 0.17
0.77 0.76 0.79 0.81 0.82 0.82 0.81 0.82 0.82 0.80 0.76 0.67 0.56 0.53 0.52 0.63 0.66 0.52 0.37 0.27 0.25 0.30 0.29 0.26 0.22 0.24 0.20 0.19 0.17 0.16 0.17 0.25 0.22 0.25 0.25 0.21 0.12 0.20 0.18 0.17 0.17 0.18 0.20 0.16 0.25 0.16 0.12
0.72 0.75 0.78 0.78 0.80 0.80 0.80 0.80 0.78 0.76 0.73 0.67 0.56 0.44 0.53 0.65 0.59 0.41 0.28 0.30 0.27 0.29 0.29 0.27 0.24 0.21 0.19 0.17 0.16 0.15 0.16 0.21 0.24 0.23 0.24 0.19 0.15 0.13 0.16 0.12 0.09 0.10 0.11 0.15 0.21 0.24 0.20
0.70 0.71 0.74 0.75 0.76 0.76 0.76 0.75 0.74 0.68 0.62 0.59 0.50 0.34 0.55 0.49 0.34 0.38 0.28 0.27 0.28 0.27 0.28 0.26 0.25 0.21 0.18 0.16 0.13 0.12 0.14 0.18 0.28 0.24 0.17 0.20 0.15 0.09 0.09 0.12 0.19 0.16 0.14 0.18 0.14 0.13 0.24
0.67 0.67 0.69 0.71 0.73 0.73 0.71 0.65 0.60 0.58 0.60 0.51 0.40 0.36 0.48 0.50 0.26 0.27 0.28 0.26 0.26 0.22 0.21 0.19 0.17 0.17 0.17 0.14 0.11 0.15 0.17 0.24 0.23 0.20 0.18 0.20 0.14 0.08 0.07 0.13 0.16 0.13 0.18 0.20 0.23 0.25 0.18
0.65 0.65 0.65 0.66 0.70 0.69 0.63 0.59 0.55 0.52 0.59 0.57 0.36 0.22 0.31 0.43 0.41 0.25 0.21 0.23 0.21 0.24 0.19 0.19 0.18 0.18 0.16 0.15 0.16 0.15 0.15 0.21 0.21 0.21 0.24 0.23 0.16 0.12 0.08 0.10 0.16 0.12 0.15 0.17 0.18 0.15 0.16
0.64 0.63 0.65 0.64 0.64 0.63 0.54 0.50 0.48 0.56 0.63 0.55 0.42 0.28 0.29 0.21 0.28 0.28 0.23 0.20 0.18 0.16 0.18 0.18 0.16 0.16 0.14 0.13 0.14 0.14 0.16 0.16 0.18 0.21 0.23 0.20 0.13 0.16 0.16 0.18 0.18 0.16 0.13 0.13 0.16 0.16 0.16
0.64 0.64 0.64 0.64 0.57 0.59 0.59 0.54 0.51 0.56 0.61 0.52 0.34 0.25 0.30 0.30 0.28 0.22 0.21 0.19 0.15 0.15 0.15 0.15 0.15 0.16 0.17 0.14 0.14 0.12 0.14 0.14 0.13 0.20 0.19 0.22 0.13 0.17 0.13 0.16 0.15 0.12 0.11 0.11 0.14 0.19 0.22
0.61 0.60 0.61 0.61 0.55 0.49 0.48 0.45 0.48 0.60 0.60 0.40 0.43 0.41 0.29 0.23 0.23 0.21 0.18 0.17 0.16 0.17 0.18 0.18 0.16 0.15 0.14 0.15 0.19 0.19 0.20 0.18 0.16 0.14 0.13 0.13 0.13 0.11 0.07 0.12 0.12 0.07 0.14 0.17 0.14 0.26 0.26
0.61 0.59 0.56 0.57 0.56 0.52 0.47 0.45 0.52 0.56 0.52 0.43 0.40 0.34 0.22 0.18 0.19 0.16 0.17 0.18 0.18 0.18 0.16 0.20 0.20 0.17 0.20 0.25 0.23 0.20 0.17 0.16 0.15 0.15 0.17 0.13 0.13 0.13 0.09 0.11 0.06 0.18 0.36 0.34 0.26 0.31 0.36
0.59 0.57 0.54 0.51 0.45 0.43 0.40 0.44 0.51 0.51 0.47 0.41 0.42 0.33 0.26 0.19 0.18 0.19 0.19 0.19 0.19 0.20 0.19 0.18 0.20 0.24 0.26 0.21 0.15 0.11 0.11 0.14 0.18 0.20 0.23 0.23 0.15 0.12 0.09 0.12 0.17 0.25 0.32 0.32 0.32 0.32 0.41
0.57 0.56 0.55 0.50 0.42 0.39 0.39 0.46 0.47 0.47 0.43 0.41 0.40 0.41 0.27 0.19 0.20 0.24 0.20 0.20 0.16 0.14 0.15 0.18 0.23 0.27 0.25 0.19 0.16 0.13 0.11 0.15 0.18 0.25 0.28 0.26 0.23 0.16 0.18 0.16 0.15 0.27 0.37 0.43 0.42 0.27 0.42
0.52 0.51 0.51 0.46 0.39 0.38 0.43 0.46 0.46 0.42 0.38 0.40 0.40 0.40 0.28 0.22 0.28 0.26 0.18 0.16 0.17 0.15 0.12 0.17 0.19 0.20 0.26 0.19 0.17 0.16 0.16 0.25 0.20 0.22 0.23 0.23 0.22 0.19 0.19 0.18 0.23 0.34 0.41 0.47 0.27 0.28 0.40
0.54 0.47 0.49 0.46 0.44 0.40 0.38 0.44 0.44 0.38 0.34 0.38 0.38 0.42 0.32 0.26 0.29 0.29 0.24 0.15 0.17 0.17 0.12 0.17 0.20 0.22 0.22 0.19 0.20 0.22 0.22 0.26 0.25 0.29 0.27 0.25 0.23 0.22 0.22 0.19 0.18 0.39 0.41 0.31 0.36 0.39 0.38
0.50 0.48 0.54 0.47 0.39 0.39 0.38 0.38 0.39 0.39 0.36 0.37 0.33 0.42 0.39 0.26 0.27 0.30 0.25 0.26 0.25 0.24 0.22 0.25 0.22 0.25 0.29 0.25 0.28 0.29 0.25 0.28 0.27 0.21 0.35 0.24 0.29 0.26 0.27 0.26 0.36 0.40 0.39 0.43 0.44 0.39 0.39

GFSGBSN_prec_pwat_102.txt.gz
Precipitable_Water
0.75 0.81 0.90 1.01 1.09 1.12 1.12 1.16 1.15 1.14 1.16 1.18 1.19 1.18 1.13 1.08 1.08 1.05 1.02 0.96 0.91 0.89 0.84 0.82 0.80 0.83 0.71 0.62 0.66 0.62 0.74 0.79 0.75 0.64 0.55 0.49 0.42 0.37 0.32 0.32 0.33 0.32 0.33 0.34 0.36 0.36 0.36
0.64 0.64 0.66 0.69 0.79 0.88 0.95 1.04 1.09 1.09 1.10 1.10 1.08 1.11 1.13 1.11 1.06 1.01 0.99 0.96 0.89 0.80 0.76 0.72 0.72 0.78 0.63 0.55 0.66 0.64 0.67 0.71 0.65 0.61 0.56 0.55 0.48 0.45 0.42 0.41 0.37 0.39 0.38 0.38 0.38 0.36 0.35
0.63 0.62 0.62 0.61 0.63 0.63 0.75 0.81 0.87 0.96 1.07 1.07 1.12 1.11 1.13 1.14 1.10 1.04 0.99 0.96 0.88 0.80 0.73 0.68 0.71 0.70 0.56 0.63 0.62 0.61 0.60 0.65 0.62 0.57 0.52 0.56 0.55 0.51 0.44 0.38 0.42 0.41 0.36 0.37 0.36 0.35 0.33
0.56 0.56 0.57 0.58 0.60 0.60 0.62 0.70 0.82 0.79 0.92 0.98 1.17 1.12 1.17 1.18 1.15 1.09 1.06 1.00 0.89 0.75 0.72 0.69 0.78 0.70 0.46 0.65 0.62 0.53 0.46 0.49 0.55 0.54 0.53 0.54 0.49 0.43 0.40 0.40 0.37 0.35 0.36 0.30 0.36 0.37 0.37
0.49 0.51 0.53 0.54 0.55 0.58 0.59 0.64 0.70 0.78 0.81 0.84 0.99 1.13 1.15 1.10 1.14 1.11 1.08 0.99 0.89 0.77 0.74 0.72 0.72 0.66 0.45 0.54 0.43 0.48 0.48 0.37 0.34 0.42 0.47 0.50 0.46 0.39 0.38 0.33 0.30 0.32 0.27 0.29 0.31 0.37 0.36
0.51 0.52 0.53 0.55 0.56 0.57 0.60 0.60 0.68 0.74 0.75 0.81 0.96 0.92 1.16 1.03 1.11 1.00 1.00 0.91 0.77 0.76 0.79 0.79 0.75 0.52 0.47 0.36 0.49 0.46 0.48 0.46 0.37 0.40 0.37 0.38 0.37 0.31 0.31 0.30 0.23 0.25 0.26 0.29 0.28 0.31 0.29
0.53 0.53 0.54 0.56 0.59 0.63 0.63 0.63 0.66 0.71 0.79 0.82 0.91 0.86 0.94 1.00 0.98 1.04 0.89 0.81 0.68 0.58 0.67 0.56 0.53 0.45 0.35 0.47 0.52 0.38 0.42 0.45 0.43 0.38 0.32 0.34 0.29 0.26 0.27 0.28 0.27 0.26 0.25 0.23 0.25 0.25 0.25
0.52 0.52 0.53 0.56 0.65 0.64 0.63 0.64 0.69 0.72 0.79 0.88 0.83 0.94 0.89 0.89 0.93 0.91 0.85 0.56 0.61 0.60 0.47 0.58 0.52 0.51 0.51 0.55 0.37 0.39 0.43 0.36 0.34 0.26 0.30 0.29 0.23 0.26 0.28 0.27 0.27 0.27 0.24 0.23 0.27 0.30 0.27
0.50 0.49 0.50 0.51 0.60 0.64 0.65 0.66 0.72 0.77 0.81 0.86 0.87 0.86 0.93 0.87 0.91 0.82 0.71 0.70 0.74 0.67 0.45 0.44 0.47 0.47 0.52 0.43 0.31 0.36 0.37 0.30 0.24 0.21 0.22 0.20 0.23 0.29 0.26 0.24 0.23 0.23 0.22 0.23 0.22 0.25 0.25
0.47 0.43 0.45 0.49 0.54 0.65 0.66 0.72 0.75 0.78 0.85 0.92 0.87 0.93 0.87 0.84 0.72 0.70 0.60 0.50 0.63 0.61 0.33 0.26 0.27 0.32 0.41 0.44 0.30 0.35 0.37 0.30 0.25 0.22 0.22 0.21 0.22 0.20 0.22 0.21 0.23 0.18 0.25 0.25 0.23 0.21 0.16
0.48 0.44 0.44 0.48 0.58 0.67 0.73 0.74 0.80 0.84 0.90 0.90 0.99 0.88 0.87 0.84 0.72 0.67 0.63 0.70 0.72 0.54 0.23 0.26 0.24 0.34 0.29 0.24 0.27 0.28 0.38 0.34 0.25 0.24 0.24 0.20 0.24 0.24 0.23 0.23 0.24 0.20 0.24 0.22 0.21 0.20 0.19
0.51 0.48 0.47 0.58 0.68 0.74 0.77 0.79 0.86 0.92 0.92 0.90 0.92 0.88 0.86 0.75 0.71 0.69 0.76 0.72 0.60 0.30 0.19 0.26 0.30 0.26 0.26 0.24 0.25 0.31 0.33 0.39 0.38 0.31 0.30 0.26 0.31 0.28 0.26 0.26 0.26 0.26 0.22 0.22 0.22 0.21 0.14
0.53 0.56 0.49 0.66 0.76 0.80 0.83 0.86 0.89 0.90 0.91 0.89 0.89 0.91 0.78 0.77 0.68 0.77 0.72 0.58 0.30 0.22 0.30 0.29 0.31 0.33 0.27 0.24 0.27 0.28 0.33 0.34 0.30 0.25 0.22 0.24 0.21 0.25 0.27 0.22 0.27 0.25 0.22 0.16 0.14 0.14 0.11
0.56 0.57 0.54 0.64 0.81 0.87 0.91 0.92 0.96 0.91 0.87 0.89 0.83 0.83 0.77 0.77 0.80 0.79 0.64 0.42 0.23 0.21 0.24 0.29 0.32 0.32 0.26 0.24 0.24 0.26 0.34 0.32 0.37 0.32 0.25 0.17 0.16 0.26 0.28 0.22 0.18 0.22 0.22 0.17 0.12 0.12 0.13
0.62 0.61 0.58 0.61 0.72 0.85 0.88 0.94 0.88 0.87 0.86 0.84 0.79 0.73 0.71 0.75 0.78 0.70 0.49 0.29 0.23 0.27 0.22 0.22 0.28 0.27 0.23 0.22 0.21 0.22 0.26 0.28 0.29 0.27 0.19 0.18 0.17 0.28 0.26 0.24 0.21 0.19 0.17 0.25 0.20 0.20 0.16
0.64 0.67 0.67 0.65 0.68 0.72 0.75 0.78 0.80 0.83 0.86 0.82 0.68 0.66 0.63 0.76 0.74 0.60 0.42 0.29 0.28 0.29 0.26 0.24 0.23 0.25 0.22 0.21 0.19 0.19 0.21 0.29 0.28 0.30 0.29 0.23 0.14 0.22 0.23 0.22 0.21 0.16 0.18 0.11 0.18 0.10 0.10
0.63 0.67 0.71 0.73 0.75 0.77 0.78 0.80 0.81 0.81 0.80 0.79 0.67 0.53 0.63 0.74 0.67 0.48 0.31 0.32 0.29 0.28 0.31 0.24 0.26 0.28 0.27 0.24 0.22 0.20 0.21 0.26 0.28 0.26 0.24 0.20 0.16 0.17 0.17 0.11 0.10 0.10 0.09 0.11 0.18 0.15 0.10
0.64 0.65 0.68 0.71 0.74 0.76 0.77 0.78 0.79 0.77 0.76 0.70 0.58 0.41 0.62 0.68 0.42 0.42 0.34 0.35 0.33 0.28 0.33 0.32 0.31 0.27 0.27 0.25 0.21 0.20 0.20 0.22 0.28 0.25 0.18 0.21 0.16 0.10 0.10 0.14 0.17 0.16 0.16 0.16 0.09 0.09 0.15
0.63 0.64 0.67 0.70 0.71 0.73 0.74 0.75 0.75 0.71 0.70 0.60 0.49 0.49 0.64 0.57 0.32 0.33 0.37 0.32 0.32 0.29 0.29 0.28 0.28 0.28 0.27 0.23 0.18 0.20 0.21 0.27 0.26 0.22 0.18 0.20 0.14 0.09 0.10 0.16 0.17 0.14 0.15 0.16 0.19 0.18 0.11
0.63 0.63 0.64 0.68 0.69 0.70 0.71 0.72 0.71 0.68 0.68 0.62 0.43 0.36 0.45 0.47 0.48 0.32 0.28 0.27 0.26 0.31 0.28 0.27 0.23 0.23 0.20 0.17 0.17 0.15 0.18 0.21 0.22 0.22 0.25 0.22 0.15 0.10 0.06 0.09 0.14 0.11 0.13 0.15 0.15 0.12 0.10
0.62 0.60 0.62 0.65 0.66 0.67 0.64 0.62 0.59 0.63 0.65 0.55 0.40 0.30 0.33 0.28 0.36 0.32 0.29 0.27 0.24 0.22 0.24 0.23 0.21 0.19 0.17 0.13 0.14 0.14 0.16 0.17 0.19 0.24 0.22 0.18 0.11 0.13 0.14 0.15 0.15 0.14 0.13 0.13 0.11 0.12 0.11
0.61 0.62 0.58 0.62 0.64 0.63 0.60 0.59 0.57 0.60 0.63 0.51 0.35 0.30 0.33 0.27 0.35 0.28 0.26 0.23 0.21 0.21 0.19 0.16 0.15 0.17 0.17 0.14 0.15 0.13 0.15 0.16 0.14 0.22 0.19 0.21 0.11 0.13 0.10 0.12 0.13 0.09 0.09 0.10 0.12 0.12 0.13
0.61 0.62 0.61 0.59 0.61 0.59 0.55 0.50 0.49 0.62 0.62 0.47 0.44 0.40 0.31 0.28 0.27 0.24 0.23 0.23 0.20 0.19 0.19 0.19 0.17 0.16 0.15 0.16 0.19 0.20 0.20 0.19 0.18 0.14 0.15 0.14 0.11 0.10 0.06 0.10 0.10 0.06 0.09 0.15 0.17 0.21 0.18
0.60 0.61 0.61 0.58 0.58 0.58 0.50 0.48 0.60 0.63 0.63 0.51 0.46 0.36 0.27 0.23 0.25 0.24 0.23 0.21 0.18 0.18 0.16 0.20 0.20 0.17 0.21 0.26 0.22 0.18 0.17 0.16 0.15 0.15 0.16 0.14 0.13 0.13 0.09 0.10 0.04 0.08 0.22 0.30 0.28 0.26 0.25
0.58 0.58 0.58 0.55 0.51 0.51 0.50 0.53 0.61 0.63 0.60 0.50 0.49 0.37 0.28 0.23 0.23 0.22 0.21 0.19 0.20 0.20 0.19 0.18 0.20 0.23 0.25 0.19 0.13 0.10 0.11 0.14 0.18 0.20 0.17 0.15 0.14 0.12 0.09 0.08 0.10 0.15 0.28 0.30 0.28 0.26 0.33
0.60 0.59 0.56 0.56 0.54 0.50 0.56 0.57 0.61 0.59 0.55 0.49 0.43 0.42 0.29 0.21 0.20 0.22 0.20 0.20 0.16 0.15 0.15 0.17 0.22 0.26 0.23 0.17 0.15 0.12 0.11 0.14 0.16 0.21 0.29 0.28 0.25 0.17 0.15 0.12 0.13 0.24 0.33 0.40 0.38 0.24 0.37
0.58 0.57 0.54 0.49 0.46 0.46 0.51 0.52 0.50 0.49 0.46 0.43 0.41 0.43 0.31 0.22 0.28 0.25 0.18 0.17 0.18 0.14 0.12 0.17 0.19 0.19 0.24 0.17 0.14 0.14 0.15 0.23 0.18 0.21 0.22 0.23 0.23 0.17 0.16 0.17 0.20 0.30 0.35 0.42 0.23 0.26 0.39
0.54 0.56 0.53 0.44 0.41 0.44 0.49 0.47 0.46 0.39 0.39 0.42 0.40 0.42 0.30 0.26 0.28 0.28 0.23 0.16 0.16 0.15 0.11 0.17 0.18 0.20 0.20 0.18 0.19 0.21 0.21 0.24 0.24 0.27 0.24 0.23 0.21 0.20 0.21 0.18 0.17 0.36 0.36 0.29 0.34 0.40 0.40
0.51 0.51 0.49 0.41 0.41 0.39 0.45 0.45 0.40 0.36 0.36 0.43 0.33 0.41 0.38 0.26 0.26 0.31 0.26 0.26 0.24 0.22 0.19 0.22 0.21 0.24 0.28 0.25 0.28 0.28 0.24 0.27 0.25 0.20 0.32 0.23 0.28 0.25 0.26 0.24 0.34 0.38 0.37 0.42 0.43 0.39 0.39

GFSGBSN_prec_pwat_105.txt.gz
Precipitable_Water
0.66 0.66 0.67 0.68 0.72 0.78 0.84 0.95 0.99 1.06 1.09 1.12 1.19 1.18 1.13 1.09 1.10 1.08 1.04 0.98 0.99 0.94 0.85 0.77 0.71 0.72 0.60 0.45 0.53 0.66 0.74 0.82 0.80 0.71 0.58 0.52 0.48 0.44 0.39 0.38 0.38 0.37 0.37 0.38 0.38 0.38 0.38
0.63 0.62 0.62 0.60 0.59 0.60 0.62 0.65 0.76 0.84 0.89 0.97 1.07 1.09 1.13 1.13 1.08 1.05 1.03 0.98 0.97 0.93 0.84 0.74 0.70 0.73 0.55 0.40 0.52 0.57 0.58 0.63 0.61 0.59 0.54 0.54 0.48 0.46 0.41 0.43 0.41 0.43 0.43 0.42 0.43 0.41 0.41
0.58 0.57 0.58 0.57 0.58 0.58 0.60 0.60 0.62 0.65 0.76 0.75 0.85 0.94 1.05 1.11 1.08 1.07 1.02 1.01 0.96 0.94 0.85 0.75 0.72 0.71 0.55 0.53 0.58 0.62 0.62 0.61 0.59 0.52 0.47 0.49 0.51 0.50 0.46 0.40 0.43 0.43 0.38 0.40 0.40 0.39 0.38
0.54 0.52 0.52 0.52 0.54 0.54 0.55 0.55 0.57 0.59 0.62 0.70 0.72 0.80 0.89 1.04 1.02 1.12 1.01 1.09 1.07 1.00 0.87 0.79 0.79 0.71 0.47 0.68 0.69 0.61 0.55 0.49 0.55 0.53 0.49 0.49 0.48 0.45 0.40 0.42 0.39 0.35 0.35 0.29 0.36 0.37 0.38
0.53 0.56 0.54 0.52 0.53 0.54 0.55 0.54 0.54 0.56 0.60 0.63 0.70 0.80 0.78 0.88 0.97 1.08 1.10 1.08 1.06 0.93 0.88 0.83 0.75 0.66 0.47 0.65 0.49 0.45 0.44 0.35 0.38 0.44 0.46 0.46 0.44 0.35 0.33 0.30 0.29 0.32 0.26 0.27 0.29 0.35 0.35
0.56 0.55 0.55 0.54 0.53 0.52 0.53 0.55 0.58 0.56 0.59 0.64 0.69 0.76 0.81 0.81 0.88 0.98 1.06 0.98 0.93 0.92 0.90 0.85 0.75 0.56 0.54 0.44 0.53 0.52 0.56 0.45 0.30 0.29 0.32 0.34 0.34 0.29 0.28 0.28 0.21 0.22 0.23 0.25 0.25 0.30 0.30
0.55 0.55 0.53 0.54 0.53 0.52 0.53 0.55 0.62 0.63 0.64 0.65 0.71 0.79 0.84 0.83 0.83 0.87 0.87 0.84 0.77 0.70 0.77 0.61 0.61 0.54 0.44 0.56 0.60 0.48 0.50 0.46 0.37 0.32 0.24 0.29 0.23 0.21 0.25 0.25 0.26 0.25 0.24 0.22 0.24 0.26 0.26
0.50 0.54 0.54 0.50 0.48 0.47 0.47 0.50 0.52 0.61 0.66 0.68 0.73 0.82 0.79 0.85 0.89 0.83 0.77 0.60 0.65 0.65 0.52 0.64 0.63 0.57 0.61 0.62 0.44 0.48 0.53 0.42 0.37 0.28 0.31 0.27 0.21 0.27 0.29 0.30 0.27 0.24 0.23 0.21 0.24 0.28 0.27
0.52 0.49 0.49 0.46 0.42 0.39 0.40 0.45 0.50 0.61 0.64 0.67 0.75 0.80 0.86 0.84 0.90 0.76 0.71 0.62 0.70 0.65 0.49 0.45 0.56 0.52 0.53 0.55 0.43 0.43 0.49 0.44 0.39 0.34 0.31 0.26 0.25 0.27 0.25 0.23 0.22 0.22 0.20 0.21 0.21 0.24 0.26
0.48 0.47 0.46 0.43 0.38 0.38 0.39 0.44 0.51 0.60 0.67 0.70 0.80 0.81 0.83 0.85 0.68 0.69 0.68 0.76 0.66 0.64 0.34 0.31 0.33 0.43 0.45 0.47 0.40 0.48 0.49 0.40 0.35 0.30 0.29 0.24 0.26 0.26 0.25 0.22 0.23 0.18 0.23 0.22 0.22 0.21 0.16
0.42 0.44 0.43 0.40 0.37 0.38 0.42 0.48 0.57 0.64 0.70 0.76 0.81 0.81 0.80 0.77 0.67 0.61 0.69 0.61 0.58 0.57 0.23 0.35 0.29 0.40 0.38 0.31 0.33 0.36 0.44 0.40 0.30 0.27 0.25 0.21 0.22 0.20 0.19 0.19 0.24 0.21 0.25 0.24 0.23 0.20 0.18
0.41 0.45 0.44 0.42 0.37 0.40 0.46 0.59 0.65 0.73 0.79 0.82 0.83 0.78 0.80 0.71 0.72 0.73 0.73 0.79 0.66 0.37 0.23 0.30 0.37 0.32 0.31 0.30 0.32 0.36 0.31 0.37 0.34 0.28 0.29 0.26 0.32 0.30 0.27 0.29 0.27 0.27 0.24 0.23 0.22 0.20 0.14
0.45 0.47 0.46 0.45 0.41 0.42 0.53 0.67 0.73 0.77 0.84 0.85 0.83 0.81 0.82 0.77 0.67 0.75 0.75 0.58 0.34 0.25 0.31 0.27 0.29 0.31 0.28 0.23 0.30 0.32 0.29 0.29 0.26 0.24 0.24 0.27 0.25 0.30 0.32 0.26 0.29 0.27 0.22 0.15 0.13 0.14 0.13
0.48 0.51 0.48 0.49 0.47 0.47 0.62 0.72 0.79 0.83 0.87 0.85 0.85 0.84 0.78 0.81 0.78 0.83 0.67 0.47 0.27 0.32 0.31 0.34 0.33 0.35 0.30 0.28 0.28 0.29 0.28 0.27 0.34 0.30 0.26 0.21 0.18 0.26 0.27 0.22 0.20 0.22 0.22 0.16 0.12 0.13 0.16
0.48 0.55 0.53 0.50 0.52 0.51 0.71 0.79 0.86 0.86 0.86 0.81 0.81 0.76 0.72 0.75 0.82 0.76 0.51 0.31 0.28 0.32 0.31 0.27 0.30 0.28 0.24 0.23 0.23 0.24 0.31 0.30 0.35 0.37 0.29 0.26 0.24 0.31 0.28 0.26 0.24 0.25 0.21 0.26 0.20 0.22 0.16
0.51 0.57 0.57 0.58 0.55 0.60 0.72 0.79 0.82 0.78 0.79 0.85 0.76 0.67 0.67 0.79 0.76 0.67 0.43 0.34 0.33 0.33 0.30 0.27 0.24 0.28 0.23 0.22 0.20 0.22 0.28 0.37 0.36 0.40 0.38 0.27 0.18 0.27 0.28 0.26 0.24 0.21 0.20 0.15 0.18 0.10 0.09
0.54 0.59 0.59 0.60 0.64 0.61 0.62 0.66 0.69 0.69 0.77 0.82 0.71 0.54 0.68 0.80 0.73 0.51 0.36 0.37 0.37 0.34 0.32 0.25 0.25 0.26 0.27 0.25 0.22 0.20 0.23 0.30 0.32 0.31 0.32 0.28 0.22 0.21 0.22 0.18 0.15 0.13 0.11 0.13 0.14 0.14 0.08
0.57 0.58 0.59 0.62 0.67 0.71 0.70 0.70 0.72 0.74 0.78 0.77 0.61 0.45 0.67 0.75 0.44 0.44 0.36 0.38 0.39 0.32 0.35 0.33 0.28 0.30 0.31 0.33 0.27 0.25 0.26 0.29 0.34 0.31 0.23 0.24 0.19 0.14 0.14 0.18 0.18 0.16 0.14 0.14 0.08 0.07 0.12
0.60 0.60 0.61 0.62 0.65 0.69 0.71 0.73 0.75 0.76 0.76 0.69 0.52 0.50 0.67 0.65 0.35 0.36 0.39 0.38 0.38 0.33 0.33 0.33 0.34 0.34 0.30 0.30 0.26 0.27 0.28 0.34 0.33 0.28 0.22 0.22 0.15 0.10 0.13 0.17 0.19 0.16 0.16 0.16 0.16 0.17 0.11
0.64 0.62 0.60 0.63 0.65 0.67 0.69 0.71 0.73 0.73 0.74 0.67 0.51 0.37 0.47 0.52 0.50 0.38 0.35 0.34 0.31 0.37 0.32 0.31 0.31 0.32 0.30 0.28 0.28 0.26 0.26 0.27 0.28 0.26 0.26 0.23 0.16 0.10 0.07 0.10 0.14 0.12 0.14 0.16 0.14 0.09 0.09
0.63 0.61 0.60 0.62 0.65 0.66 0.68 0.68 0.69 0.72 0.71 0.61 0.45 0.40 0.41 0.34 0.39 0.37 0.36 0.31 0.27 0.27 0.30 0.30 0.25 0.24 0.21 0.18 0.19 0.18 0.20 0.20 0.22 0.27 0.24 0.21 0.13 0.14 0.13 0.12 0.14 0.13 0.12 0.12 0.11 0.12 0.10
0.62 0.58 0.60 0.62 0.63 0.64 0.65 0.67 0.67 0.69 0.67 0.53 0.39 0.37 0.38 0.36 0.40 0.36 0.32 0.27 0.26 0.25 0.24 0.23 0.20 0.20 0.20 0.17 0.16 0.15 0.17 0.17 0.16 0.25 0.22 0.23 0.13 0.14 0.11 0.12 0.11 0.09 0.10 0.10 0.10 0.10 0.11
0.59 0.58 0.59 0.60 0.62 0.61 0.62 0.62 0.66 0.66 0.65 0.50 0.46 0.45 0.35 0.37 0.35 0.29 0.27 0.25 0.24 0.25 0.26 0.23 0.19 0.18 0.17 0.18 0.20 0.20 0.20 0.19 0.18 0.16 0.16 0.16 0.13 0.10 0.07 0.10 0.10 0.05 0.08 0.12 0.16 0.21 0.21
0.60 0.58 0.58 0.58 0.59 0.59 0.58 0.58 0.60 0.62 0.64 0.53 0.46 0.39 0.31 0.29 0.30 0.27 0.26 0.26 0.23 0.22 0.18 0.21 0.21 0.16 0.21 0.26 0.22 0.19 0.18 0.16 0.17 0.16 0.18 0.14 0.13 0.11 0.08 0.09 0.03 0.09 0.22 0.23 0.26 0.28 0.30
0.60 0.61 0.59 0.56 0.57 0.56 0.55 0.57 0.59 0.63 0.67 0.56 0.52 0.40 0.31 0.25 0.29 0.28 0.27 0.26 0.24 0.23 0.19 0.19 0.21 0.23 0.25 0.19 0.13 0.11 0.13 0.15 0.19 0.21 0.18 0.18 0.14 0.10 0.07 0.08 0.08 0.13 0.22 0.26 0.25 0.25 0.31
0.60 0.59 0.56 0.54 0.58 0.55 0.58 0.60 0.57 0.65 0.67 0.55 0.50 0.47 0.33 0.26 0.26 0.30 0.26 0.24 0.17 0.16 0.17 0.18 0.23 0.26 0.23 0.17 0.14 0.11 0.10 0.13 0.15 0.21 0.27 0.24 0.21 0.15 0.14 0.10 0.09 0.22 0.30 0.35 0.35 0.22 0.35
0.59 0.56 0.55 0.52 0.52 0.58 0.60 0.61 0.63 0.63 0.61 0.54 0.46 0.47 0.35 0.27 0.31 0.27 0.19 0.18 0.19 0.15 0.13 0.17 0.19 0.19 0.23 0.16 0.14 0.14 0.15 0.21 0.17 0.19 0.20 0.22 0.22 0.18 0.18 0.16 0.18 0.28 0.33 0.39 0.22 0.24 0.36
0.58 0.55 0.54 0.51 0.52 0.56 0.57 0.57 0.58 0.56 0.54 0.47 0.42 0.44 0.32 0.28 0.29 0.29 0.25 0.18 0.16 0.15 0.11 0.18 0.18 0.20 0.20 0.17 0.18 0.20 0.19 0.22 0.22 0.25 0.23 0.21 0.20 0.19 0.21 0.17 0.16 0.34 0.34 0.27 0.32 0.37 0.38
0.57 0.54 0.50 0.48 0.46 0.52 0.54 0.53 0.47 0.43 0.44 0.44 0.34 0.43 0.38 0.28 0.27 0.31 0.28 0.26 0.22 0.20 0.17 0.21 0.20 0.24 0.27 0.23 0.25 0.26 0.22 0.25 0.24 0.18 0.31 0.22 0.27 0.24 0.25 0.24 0.34 0.37 0.35 0.39 0.40 0.38 0.38

GFSGBSN_prec_pwat_111.txt.gz
Precipitable_Water
0.87 0.88 0.84 0.79 0.77 0.75 0.74 0.73 0.72 0.70 0.69 0.70 0.72 0.79 0.80 0.87 0.97 1.02 1.05 1.05 1.03 1.00 0.93 0.90 0.85 0.78 0.72 0.51 0.48 0.66 0.62 0.61 0.60 0.57 0.49 0.44 0.39 0.37 0.33 0.36 0.33 0.33 0.37 0.40 0.40 0.39 0.43
0.67 0.68 0.68 0.66 0.63 0.62 0.60 0.59 0.59 0.59 0.59 0.58 0.58 0.61 0.66 0.75 0.83 0.89 0.92 0.97 0.97 0.98 0.96 0.88 0.82 0.78 0.64 0.44 0.63 0.54 0.61 0.68 0.60 0.57 0.51 0.46 0.41 0.40 0.33 0.34 0.33 0.35 0.31 0.33 0.36 0.35 0.39
0.64 0.64 0.61 0.59 0.56 0.57 0.57 0.57 0.55 0.57 0.56 0.57 0.57 0.60 0.61 0.67 0.71 0.78 0.78 0.88 0.89 0.91 0.89 0.87 0.81 0.73 0.57 0.50 0.72 0.64 0.65 0.59 0.61 0.57 0.51 0.51 0.44 0.38 0.36 0.32 0.35 0.35 0.32 0.37 0.36 0.35 0.32
0.60 0.59 0.57 0.56 0.56 0.59 0.55 0.54 0.53 0.53 0.56 0.56 0.54 0.55 0.58 0.62 0.66 0.72 0.80 0.80 0.82 0.84 0.84 0.83 0.79 0.70 0.48 0.76 0.76 0.68 0.65 0.59 0.61 0.65 0.57 0.54 0.49 0.42 0.38 0.39 0.36 0.30 0.30 0.24 0.32 0.33 0.32
0.58 0.56 0.58 0.55 0.53 0.57 0.55 0.53 0.53 0.55 0.55 0.53 0.54 0.55 0.58 0.61 0.67 0.75 0.79 0.80 0.81 0.82 0.77 0.78 0.69 0.64 0.44 0.67 0.59 0.62 0.62 0.55 0.53 0.55 0.55 0.51 0.49 0.42 0.39 0.35 0.30 0.29 0.21 0.26 0.29 0.32 0.30
0.57 0.57 0.57 0.54 0.54 0.55 0.58 0.58 0.56 0.55 0.55 0.53 0.52 0.55 0.58 0.64 0.68 0.79 0.80 0.78 0.81 0.76 0.69 0.70 0.64 0.50 0.53 0.56 0.66 0.53 0.60 0.56 0.44 0.41 0.44 0.43 0.39 0.32 0.31 0.29 0.19 0.24 0.25 0.26 0.24 0.29 0.30
0.53 0.52 0.55 0.56 0.56 0.57 0.54 0.52 0.51 0.50 0.48 0.47 0.50 0.52 0.57 0.64 0.75 0.78 0.73 0.66 0.58 0.53 0.54 0.39 0.43 0.46 0.52 0.57 0.54 0.53 0.59 0.48 0.42 0.36 0.33 0.41 0.33 0.25 0.28 0.31 0.30 0.29 0.26 0.25 0.26 0.30 0.27
0.52 0.49 0.51 0.51 0.53 0.52 0.49 0.45 0.43 0.41 0.40 0.43 0.45 0.47 0.53 0.64 0.78 0.74 0.74 0.53 0.58 0.58 0.39 0.52 0.46 0.45 0.51 0.55 0.45 0.52 0.63 0.45 0.44 0.33 0.34 0.33 0.26 0.29 0.33 0.31 0.29 0.28 0.25 0.24 0.25 0.26 0.27
0.52 0.49 0.46 0.48 0.45 0.43 0.42 0.41 0.38 0.37 0.37 0.40 0.44 0.48 0.53 0.65 0.75 0.72 0.61 0.62 0.70 0.69 0.44 0.38 0.40 0.38 0.40 0.51 0.35 0.37 0.53 0.43 0.36 0.31 0.30 0.28 0.26 0.27 0.28 0.27 0.25 0.24 0.25 0.25 0.25 0.28 0.30
0.44 0.48 0.47 0.47 0.47 0.44 0.42 0.41 0.39 0.36 0.37 0.39 0.43 0.50 0.57 0.72 0.62 0.61 0.58 0.67 0.66 0.75 0.36 0.26 0.35 0.39 0.44 0.49 0.38 0.43 0.45 0.41 0.37 0.30 0.34 0.36 0.39 0.34 0.35 0.31 0.29 0.26 0.31 0.31 0.29 0.26 0.21
0.46 0.46 0.47 0.47 0.47 0.46 0.44 0.43 0.39 0.38 0.39 0.41 0.44 0.51 0.61 0.65 0.56 0.47 0.59 0.64 0.72 0.67 0.19 0.28 0.34 0.46 0.39 0.36 0.35 0.35 0.46 0.49 0.37 0.34 0.37 0.32 0.38 0.37 0.34 0.33 0.39 0.32 0.34 0.31 0.29 0.28 0.25
0.48 0.48 0.49 0.48 0.49 0.47 0.43 0.41 0.39 0.37 0.39 0.40 0.47 0.60 0.64 0.68 0.61 0.61 0.65 0.73 0.68 0.33 0.19 0.29 0.29 0.26 0.29 0.34 0.38 0.38 0.36 0.46 0.50 0.42 0.41 0.35 0.43 0.41 0.33 0.31 0.31 0.34 0.31 0.29 0.27 0.25 0.21
0.51 0.48 0.47 0.48 0.50 0.49 0.46 0.41 0.38 0.38 0.41 0.43 0.58 0.67 0.64 0.67 0.47 0.68 0.69 0.58 0.33 0.23 0.33 0.29 0.26 0.28 0.30 0.29 0.32 0.32 0.32 0.33 0.32 0.29 0.28 0.34 0.34 0.42 0.37 0.33 0.35 0.32 0.28 0.22 0.20 0.20 0.19
0.54 0.50 0.48 0.49 0.52 0.50 0.46 0.42 0.38 0.39 0.43 0.52 0.69 0.72 0.74 0.73 0.69 0.70 0.62 0.43 0.23 0.22 0.26 0.29 0.30 0.30 0.25 0.32 0.29 0.30 0.32 0.28 0.34 0.35 0.31 0.31 0.29 0.35 0.38 0.33 0.31 0.29 0.27 0.23 0.19 0.20 0.23
0.56 0.52 0.49 0.49 0.51 0.51 0.47 0.44 0.39 0.40 0.50 0.68 0.75 0.70 0.64 0.70 0.71 0.71 0.50 0.27 0.24 0.23 0.29 0.30 0.32 0.26 0.26 0.31 0.29 0.30 0.30 0.30 0.32 0.35 0.28 0.27 0.27 0.39 0.35 0.33 0.31 0.27 0.28 0.31 0.26 0.27 0.23
0.56 0.53 0.51 0.49 0.50 0.53 0.47 0.45 0.39 0.44 0.65 0.70 0.62 0.55 0.56 0.76 0.74 0.67 0.44 0.33 0.32 0.36 0.38 0.37 0.31 0.31 0.28 0.33 0.27 0.26 0.28 0.32 0.29 0.33 0.37 0.36 0.30 0.36 0.34 0.32 0.29 0.24 0.33 0.27 0.24 0.17 0.15
0.50 0.53 0.51 0.47 0.47 0.54 0.49 0.46 0.42 0.54 0.69 0.70 0.65 0.44 0.62 0.75 0.75 0.54 0.34 0.32 0.40 0.43 0.37 0.33 0.33 0.30 0.29 0.29 0.29 0.25 0.27 0.36 0.37 0.37 0.41 0.38 0.32 0.31 0.32 0.27 0.26 0.26 0.23 0.25 0.24 0.25 0.20
0.44 0.47 0.50 0.45 0.48 0.56 0.52 0.50 0.56 0.68 0.73 0.68 0.60 0.40 0.68 0.70 0.45 0.40 0.34 0.42 0.49 0.45 0.39 0.36 0.37 0.33 0.29 0.31 0.29 0.26 0.26 0.38 0.44 0.44 0.35 0.40 0.34 0.27 0.27 0.29 0.30 0.29 0.26 0.25 0.20 0.19 0.20
0.42 0.46 0.48 0.44 0.48 0.59 0.56 0.52 0.63 0.65 0.67 0.59 0.46 0.46 0.64 0.62 0.34 0.32 0.44 0.46 0.51 0.39 0.36 0.38 0.35 0.32 0.38 0.37 0.28 0.30 0.34 0.41 0.41 0.38 0.33 0.39 0.31 0.23 0.22 0.24 0.25 0.22 0.22 0.22 0.22 0.20 0.16
0.41 0.45 0.48 0.44 0.51 0.62 0.60 0.58 0.62 0.66 0.65 0.58 0.46 0.40 0.42 0.49 0.49 0.42 0.38 0.43 0.39 0.49 0.43 0.42 0.38 0.36 0.35 0.37 0.38 0.34 0.35 0.35 0.38 0.37 0.38 0.35 0.28 0.23 0.17 0.17 0.23 0.21 0.20 0.20 0.20 0.17 0.14
0.44 0.44 0.48 0.43 0.52 0.65 0.63 0.63 0.64 0.65 0.66 0.60 0.50 0.37 0.44 0.32 0.34 0.39 0.45 0.41 0.38 0.33 0.40 0.40 0.38 0.37 0.36 0.33 0.33 0.33 0.38 0.37 0.38 0.41 0.35 0.32 0.23 0.22 0.21 0.19 0.18 0.18 0.18 0.19 0.16 0.17 0.13
0.45 0.47 0.49 0.46 0.58 0.63 0.65 0.65 0.68 0.66 0.65 0.55 0.41 0.44 0.45 0.41 0.40 0.40 0.40 0.40 0.39 0.40 0.38 0.35 0.34 0.35 0.37 0.32 0.32 0.29 0.33 0.31 0.30 0.35 0.31 0.31 0.22 0.21 0.17 0.18 0.17 0.16 0.16 0.14 0.13 0.14 0.14
0.44 0.49 0.46 0.47 0.55 0.66 0.65 0.67 0.66 0.68 0.63 0.52 0.58 0.55 0.49 0.44 0.42 0.39 0.38 0.40 0.40 0.41 0.37 0.37 0.33 0.32 0.29 0.30 0.32 0.32 0.33 0.32 0.31 0.29 0.28 0.26 0.21 0.18 0.13 0.15 0.14 0.11 0.12 0.11 0.11 0.13 0.13
0.48 0.51 0.49 0.55 0.65 0.63 0.63 0.66 0.66 0.64 0.64 0.60 0.56 0.56 0.46 0.35 0.39 0.39 0.40 0.42 0.38 0.36 0.31 0.33 0.34 0.30 0.35 0.37 0.32 0.28 0.26 0.26 0.25 0.24 0.29 0.21 0.20 0.18 0.13 0.14 0.07 0.16 0.25 0.21 0.18 0.18 0.20
0.53 0.54 0.59 0.62 0.63 0.62 0.63 0.65 0.66 0.65 0.65 0.63 0.60 0.55 0.48 0.36 0.40 0.41 0.38 0.36 0.36 0.35 0.32 0.31 0.33 0.35 0.32 0.26 0.19 0.15 0.16 0.16 0.15 0.16 0.19 0.20 0.17 0.15 0.12 0.11 0.13 0.17 0.21 0.16 0.15 0.15 0.25
0.58 0.61 0.63 0.62 0.63 0.60 0.60 0.63 0.66 0.66 0.64 0.62 0.61 0.63 0.54 0.42 0.39 0.40 0.34 0.35 0.31 0.30 0.30 0.30 0.30 0.32 0.27 0.21 0.17 0.12 0.13 0.15 0.18 0.18 0.22 0.21 0.19 0.16 0.15 0.11 0.10 0.23 0.29 0.31 0.31 0.17 0.31
0.60 0.61 0.60 0.61 0.59 0.57 0.59 0.62 0.64 0.63 0.63 0.61 0.58 0.64 0.57 0.41 0.44 0.39 0.33 0.31 0.33 0.29 0.24 0.24 0.23 0.21 0.25 0.19 0.16 0.15 0.15 0.18 0.16 0.19 0.19 0.21 0.20 0.16 0.16 0.16 0.22 0.29 0.31 0.35 0.19 0.23 0.35
0.59 0.58 0.57 0.55 0.55 0.56 0.60 0.62 0.63 0.64 0.64 0.64 0.58 0.62 0.57 0.43 0.42 0.42 0.39 0.34 0.31 0.26 0.20 0.21 0.19 0.21 0.20 0.19 0.21 0.19 0.21 0.20 0.22 0.25 0.22 0.20 0.19 0.20 0.21 0.19 0.17 0.34 0.33 0.26 0.32 0.37 0.37
0.58 0.54 0.54 0.56 0.61 0.61 0.62 0.64 0.64 0.64 0.66 0.64 0.50 0.55 0.59 0.45 0.40 0.47 0.44 0.41 0.32 0.29 0.25 0.22 0.27 0.22 0.27 0.28 0.27 0.26 0.21 0.24 0.25 0.18 0.27 0.21 0.27 0.26 0.25 0.25 0.34 0.36 0.35 0.39 0.40 0.38 0.38

GFSGBSN_prec_pwat_114.txt.gz
Precipitable_Water
0.87 0.88 0.92 0.94 0.96 0.98 0.96 0.93 0.91 0.88 0.83 0.78 0.74 0.70 0.69 0.69 0.72 0.76 0.86 0.88 0.88 0.90 0.91 0.88 0.87 0.82 0.75 0.58 0.48 0.75 0.65 0.59 0.59 0.59 0.52 0.45 0.40 0.38 0.32 0.34 0.35 0.32 0.31 0.32 0.32 0.32 0.34
0.74 0.73 0.73 0.74 0.73 0.74 0.73 0.69 0.65 0.63 0.63 0.62 0.60 0.60 0.59 0.58 0.64 0.70 0.77 0.81 0.83 0.80 0.83 0.83 0.82 0.82 0.61 0.41 0.72 0.71 0.52 0.58 0.60 0.55 0.51 0.49 0.42 0.42 0.36 0.34 0.32 0.35 0.34 0.33 0.31 0.30 0.31
0.66 0.67 0.66 0.65 0.61 0.59 0.60 0.57 0.53 0.54 0.52 0.52 0.52 0.54 0.55 0.54 0.58 0.63 0.72 0.79 0.82 0.78 0.80 0.78 0.76 0.70 0.54 0.45 0.71 0.76 0.58 0.53 0.57 0.55 0.52 0.53 0.53 0.44 0.40 0.34 0.37 0.34 0.27 0.29 0.31 0.33 0.32
0.65 0.60 0.58 0.59 0.56 0.53 0.57 0.55 0.52 0.52 0.53 0.54 0.55 0.55 0.55 0.57 0.57 0.61 0.70 0.72 0.78 0.83 0.74 0.74 0.73 0.63 0.42 0.64 0.70 0.60 0.65 0.68 0.57 0.55 0.55 0.58 0.58 0.47 0.42 0.42 0.36 0.32 0.32 0.24 0.29 0.32 0.33
0.61 0.59 0.57 0.59 0.58 0.55 0.55 0.59 0.58 0.57 0.58 0.56 0.56 0.54 0.53 0.54 0.58 0.66 0.70 0.73 0.74 0.81 0.76 0.77 0.66 0.57 0.36 0.67 0.55 0.64 0.62 0.53 0.55 0.56 0.54 0.56 0.50 0.43 0.42 0.33 0.28 0.31 0.23 0.26 0.24 0.34 0.34
0.61 0.60 0.59 0.60 0.60 0.58 0.58 0.58 0.61 0.60 0.55 0.52 0.49 0.49 0.51 0.53 0.57 0.69 0.70 0.73 0.74 0.76 0.70 0.70 0.61 0.45 0.48 0.47 0.61 0.58 0.48 0.50 0.48 0.43 0.40 0.41 0.39 0.32 0.33 0.31 0.20 0.24 0.24 0.24 0.24 0.30 0.37
0.60 0.59 0.59 0.57 0.59 0.62 0.63 0.62 0.59 0.57 0.53 0.50 0.47 0.49 0.53 0.55 0.61 0.69 0.67 0.67 0.54 0.50 0.52 0.41 0.39 0.38 0.42 0.58 0.54 0.51 0.54 0.47 0.42 0.34 0.24 0.33 0.29 0.24 0.29 0.34 0.33 0.31 0.28 0.25 0.26 0.28 0.32
0.61 0.58 0.57 0.54 0.53 0.55 0.53 0.53 0.50 0.47 0.45 0.44 0.45 0.47 0.51 0.54 0.60 0.69 0.71 0.50 0.52 0.63 0.38 0.50 0.50 0.43 0.46 0.46 0.37 0.44 0.61 0.42 0.37 0.25 0.30 0.28 0.22 0.31 0.36 0.33 0.32 0.30 0.27 0.26 0.29 0.30 0.29
0.58 0.57 0.55 0.52 0.50 0.50 0.51 0.49 0.46 0.44 0.43 0.42 0.42 0.46 0.51 0.54 0.61 0.62 0.54 0.53 0.74 0.63 0.40 0.38 0.38 0.38 0.38 0.48 0.35 0.37 0.43 0.44 0.39 0.32 0.33 0.31 0.28 0.33 0.31 0.28 0.26 0.25 0.24 0.25 0.24 0.25 0.28
0.54 0.53 0.50 0.47 0.49 0.49 0.49 0.47 0.44 0.43 0.42 0.41 0.40 0.44 0.50 0.55 0.51 0.55 0.48 0.70 0.68 0.71 0.33 0.23 0.29 0.39 0.45 0.43 0.37 0.46 0.51 0.43 0.39 0.34 0.37 0.33 0.34 0.31 0.33 0.29 0.30 0.25 0.31 0.33 0.30 0.28 0.24
0.53 0.49 0.48 0.48 0.48 0.45 0.46 0.46 0.44 0.42 0.40 0.39 0.39 0.45 0.51 0.58 0.50 0.43 0.52 0.67 0.72 0.66 0.14 0.19 0.29 0.48 0.42 0.38 0.32 0.34 0.46 0.45 0.32 0.32 0.39 0.29 0.34 0.32 0.33 0.33 0.38 0.34 0.39 0.39 0.33 0.31 0.32
0.54 0.52 0.50 0.48 0.48 0.49 0.46 0.46 0.44 0.42 0.40 0.39 0.41 0.45 0.53 0.56 0.59 0.60 0.62 0.67 0.67 0.32 0.15 0.20 0.28 0.29 0.30 0.32 0.33 0.35 0.36 0.39 0.44 0.38 0.39 0.38 0.44 0.41 0.42 0.45 0.44 0.35 0.28 0.32 0.36 0.30 0.24
0.52 0.57 0.56 0.53 0.48 0.45 0.45 0.46 0.44 0.43 0.42 0.40 0.41 0.46 0.52 0.64 0.43 0.64 0.64 0.58 0.32 0.19 0.25 0.20 0.22 0.30 0.27 0.26 0.30 0.33 0.31 0.28 0.26 0.28 0.29 0.34 0.34 0.38 0.47 0.39 0.37 0.32 0.28 0.22 0.23 0.22 0.19
0.51 0.55 0.57 0.54 0.51 0.47 0.45 0.47 0.47 0.43 0.41 0.41 0.42 0.48 0.58 0.66 0.67 0.63 0.62 0.40 0.20 0.18 0.21 0.22 0.26 0.27 0.26 0.30 0.29 0.33 0.29 0.26 0.32 0.33 0.30 0.28 0.25 0.34 0.43 0.38 0.32 0.32 0.32 0.26 0.18 0.20 0.21
0.52 0.51 0.55 0.55 0.52 0.50 0.47 0.48 0.48 0.44 0.41 0.43 0.49 0.56 0.62 0.65 0.69 0.66 0.50 0.26 0.20 0.19 0.21 0.26 0.27 0.26 0.22 0.27 0.29 0.28 0.27 0.26 0.31 0.34 0.27 0.29 0.29 0.38 0.38 0.42 0.36 0.30 0.26 0.36 0.28 0.28 0.22
0.55 0.52 0.51 0.54 0.54 0.51 0.49 0.48 0.46 0.45 0.43 0.45 0.49 0.54 0.57 0.72 0.73 0.65 0.45 0.30 0.25 0.29 0.26 0.27 0.26 0.30 0.27 0.25 0.28 0.30 0.28 0.31 0.28 0.34 0.37 0.33 0.26 0.38 0.40 0.35 0.33 0.29 0.30 0.25 0.32 0.20 0.18
0.48 0.49 0.49 0.51 0.53 0.52 0.48 0.47 0.46 0.45 0.43 0.50 0.50 0.44 0.58 0.77 0.71 0.53 0.35 0.31 0.35 0.40 0.36 0.33 0.31 0.28 0.30 0.29 0.37 0.33 0.34 0.29 0.34 0.34 0.36 0.37 0.35 0.34 0.39 0.31 0.28 0.29 0.25 0.24 0.26 0.25 0.22
0.45 0.45 0.44 0.44 0.45 0.48 0.48 0.46 0.49 0.50 0.47 0.55 0.43 0.35 0.62 0.74 0.42 0.42 0.32 0.40 0.40 0.38 0.43 0.39 0.35 0.35 0.32 0.36 0.35 0.31 0.33 0.35 0.41 0.40 0.33 0.40 0.37 0.30 0.31 0.36 0.34 0.30 0.28 0.28 0.21 0.20 0.23
0.43 0.43 0.43 0.42 0.42 0.45 0.47 0.46 0.55 0.54 0.63 0.50 0.37 0.41 0.60 0.63 0.34 0.31 0.40 0.38 0.43 0.44 0.38 0.36 0.30 0.34 0.39 0.37 0.31 0.33 0.31 0.39 0.42 0.44 0.40 0.42 0.34 0.24 0.25 0.33 0.31 0.25 0.26 0.27 0.28 0.28 0.23
0.43 0.43 0.43 0.42 0.40 0.44 0.47 0.46 0.58 0.56 0.64 0.57 0.46 0.34 0.45 0.47 0.49 0.37 0.36 0.36 0.37 0.49 0.40 0.42 0.39 0.42 0.37 0.34 0.38 0.31 0.31 0.39 0.42 0.41 0.44 0.42 0.33 0.27 0.23 0.26 0.26 0.25 0.24 0.23 0.22 0.19 0.19
0.42 0.43 0.43 0.43 0.41 0.44 0.48 0.46 0.59 0.60 0.64 0.57 0.48 0.40 0.39 0.29 0.33 0.40 0.42 0.39 0.39 0.39 0.40 0.49 0.45 0.42 0.37 0.32 0.37 0.37 0.38 0.38 0.38 0.40 0.39 0.36 0.27 0.29 0.28 0.27 0.25 0.21 0.20 0.23 0.21 0.20 0.19
0.45 0.45 0.46 0.45 0.43 0.45 0.46 0.47 0.65 0.62 0.65 0.48 0.40 0.38 0.43 0.42 0.41 0.41 0.40 0.38 0.38 0.41 0.42 0.42 0.39 0.41 0.39 0.37 0.37 0.34 0.35 0.36 0.36 0.38 0.36 0.37 0.28 0.28 0.23 0.24 0.21 0.19 0.19 0.18 0.17 0.17 0.18
0.46 0.46 0.46 0.46 0.45 0.46 0.47 0.55 0.68 0.67 0.64 0.47 0.52 0.53 0.45 0.37 0.35 0.38 0.35 0.39 0.39 0.37 0.40 0.44 0.42 0.42 0.40 0.41 0.44 0.42 0.42 0.41 0.36 0.36 0.34 0.33 0.28 0.23 0.17 0.19 0.17 0.14 0.15 0.16 0.16 0.16 0.15
0.44 0.44 0.45 0.45 0.46 0.48 0.48 0.60 0.66 0.66 0.63 0.56 0.54 0.54 0.41 0.30 0.38 0.37 0.40 0.43 0.40 0.41 0.39 0.45 0.45 0.40 0.42 0.45 0.40 0.37 0.37 0.35 0.33 0.33 0.35 0.28 0.26 0.22 0.18 0.18 0.10 0.14 0.26 0.23 0.20 0.20 0.23
0.39 0.39 0.39 0.43 0.50 0.47 0.49 0.52 0.67 0.66 0.65 0.60 0.58 0.52 0.45 0.33 0.37 0.42 0.43 0.44 0.45 0.46 0.39 0.38 0.41 0.43 0.43 0.36 0.27 0.23 0.21 0.21 0.20 0.23 0.23 0.27 0.23 0.18 0.14 0.12 0.14 0.17 0.24 0.21 0.19 0.17 0.23
0.52 0.49 0.48 0.51 0.52 0.51 0.57 0.65 0.64 0.68 0.63 0.63 0.58 0.64 0.54 0.42 0.36 0.45 0.43 0.46 0.40 0.39 0.38 0.38 0.43 0.44 0.37 0.28 0.20 0.15 0.14 0.15 0.17 0.18 0.18 0.20 0.20 0.16 0.14 0.11 0.10 0.21 0.29 0.32 0.29 0.16 0.29
0.52 0.56 0.55 0.57 0.57 0.58 0.65 0.66 0.64 0.65 0.64 0.60 0.61 0.66 0.58 0.45 0.50 0.50 0.42 0.42 0.43 0.38 0.34 0.37 0.35 0.31 0.32 0.22 0.17 0.16 0.15 0.21 0.19 0.16 0.17 0.16 0.17 0.14 0.15 0.15 0.21 0.30 0.33 0.35 0.18 0.20 0.33
0.56 0.59 0.60 0.62 0.63 0.63 0.62 0.60 0.63 0.64 0.64 0.61 0.62 0.69 0.60 0.48 0.48 0.50 0.50 0.41 0.39 0.35 0.30 0.32 0.25 0.22 0.21 0.20 0.19 0.21 0.21 0.19 0.24 0.28 0.23 0.19 0.18 0.18 0.19 0.18 0.16 0.34 0.33 0.24 0.30 0.35 0.36
0.58 0.61 0.60 0.60 0.59 0.58 0.57 0.59 0.63 0.63 0.64 0.67 0.56 0.67 0.69 0.51 0.47 0.54 0.52 0.50 0.45 0.41 0.34 0.27 0.28 0.22 0.24 0.23 0.27 0.27 0.23 0.26 0.25 0.18 0.28 0.22 0.27 0.26 0.25 0.25 0.34 0.36 0.34 0.38 0.39 0.37 0.38

GFSGBSN_prec_pwat_120.txt.gz
Precipitable_Water
1.14 1.12 1.09 1.05 1.04 1.03 1.02 1.01 0.99 0.96 0.98 1.03 1.00 0.96 0.93 0.92 0.86 0.79 0.76 0.75 0.72 0.70 0.74 0.69 0.68 0.65 0.54 0.36 0.27 0.44 0.55 0.59 0.58 0.46 0.44 0.44 0.37 0.35 0.29 0.31 0.31 0.28 0.29 0.32 0.34 0.34 0.33
1.05 1.04 1.01 0.97 0.94 0.91 0.88 0.88 0.83 0.82 0.81 0.78 0.79 0.77 0.77 0.75 0.68 0.63 0.61 0.58 0.61 0.66 0.65 0.68 0.65 0.65 0.46 0.21 0.39 0.55 0.61 0.55 0.48 0.42 0.47 0.47 0.41 0.43 0.37 0.33 0.31 0.32 0.32 0.32 0.33 0.34 0.35
0.86 0.90 0.87 0.88 0.83 0.78 0.75 0.70 0.70 0.65 0.63 0.62 0.60 0.58 0.57 0.57 0.53 0.52 0.54 0.55 0.59 0.62 0.65 0.68 0.66 0.62 0.40 0.25 0.39 0.44 0.48 0.51 0.52 0.49 0.40 0.52 0.51 0.44 0.42 0.37 0.42 0.38 0.30 0.32 0.33 0.35 0.34
0.71 0.68 0.68 0.70 0.72 0.72 0.68 0.68 0.70 0.66 0.60 0.59 0.56 0.52 0.49 0.51 0.51 0.51 0.54 0.60 0.60 0.65 0.67 0.69 0.71 0.60 0.34 0.42 0.53 0.56 0.56 0.49 0.56 0.61 0.55 0.54 0.55 0.47 0.44 0.46 0.40 0.35 0.33 0.24 0.32 0.35 0.35
0.63 0.62 0.62 0.61 0.59 0.59 0.59 0.60 0.62 0.68 0.69 0.67 0.59 0.52 0.50 0.55 0.59 0.56 0.58 0.60 0.62 0.69 0.70 0.69 0.58 0.53 0.29 0.53 0.46 0.54 0.59 0.51 0.54 0.60 0.63 0.66 0.55 0.43 0.44 0.36 0.30 0.31 0.20 0.21 0.25 0.33 0.33
0.60 0.59 0.59 0.58 0.57 0.55 0.57 0.57 0.58 0.62 0.65 0.66 0.59 0.53 0.52 0.55 0.57 0.56 0.60 0.60 0.69 0.69 0.67 0.66 0.59 0.42 0.43 0.38 0.46 0.56 0.57 0.53 0.52 0.52 0.47 0.47 0.42 0.33 0.31 0.29 0.19 0.20 0.22 0.24 0.25 0.31 0.31
0.65 0.63 0.63 0.64 0.61 0.58 0.58 0.59 0.62 0.63 0.61 0.57 0.54 0.53 0.52 0.57 0.58 0.60 0.60 0.53 0.43 0.42 0.51 0.34 0.34 0.32 0.31 0.38 0.50 0.52 0.58 0.52 0.47 0.42 0.33 0.38 0.30 0.23 0.23 0.26 0.27 0.28 0.26 0.23 0.27 0.33 0.27
0.70 0.67 0.69 0.65 0.66 0.63 0.58 0.58 0.62 0.62 0.59 0.55 0.52 0.51 0.50 0.53 0.57 0.59 0.60 0.37 0.44 0.52 0.31 0.42 0.36 0.37 0.35 0.39 0.31 0.30 0.52 0.38 0.35 0.26 0.33 0.32 0.24 0.27 0.29 0.29 0.27 0.28 0.26 0.25 0.26 0.32 0.32
0.61 0.62 0.62 0.68 0.65 0.61 0.59 0.56 0.54 0.58 0.55 0.53 0.50 0.49 0.49 0.55 0.56 0.55 0.43 0.40 0.57 0.61 0.33 0.34 0.37 0.37 0.34 0.39 0.31 0.26 0.42 0.43 0.35 0.29 0.27 0.24 0.26 0.31 0.30 0.29 0.27 0.27 0.27 0.26 0.25 0.30 0.34
0.59 0.60 0.59 0.63 0.65 0.64 0.61 0.57 0.56 0.56 0.54 0.53 0.51 0.50 0.50 0.55 0.44 0.49 0.38 0.45 0.60 0.66 0.22 0.19 0.26 0.34 0.44 0.46 0.34 0.46 0.43 0.38 0.35 0.27 0.31 0.33 0.36 0.30 0.29 0.30 0.32 0.24 0.35 0.32 0.30 0.28 0.20
0.64 0.63 0.59 0.56 0.57 0.59 0.58 0.53 0.52 0.52 0.51 0.52 0.52 0.52 0.54 0.55 0.51 0.41 0.39 0.54 0.65 0.54 0.09 0.18 0.28 0.50 0.44 0.35 0.33 0.32 0.44 0.40 0.27 0.26 0.30 0.27 0.31 0.32 0.31 0.29 0.40 0.29 0.40 0.38 0.34 0.30 0.30
0.62 0.61 0.58 0.58 0.58 0.57 0.55 0.54 0.56 0.56 0.54 0.52 0.54 0.54 0.55 0.48 0.51 0.50 0.59 0.65 0.57 0.17 0.08 0.13 0.30 0.31 0.30 0.31 0.33 0.36 0.38 0.45 0.41 0.33 0.35 0.32 0.38 0.38 0.33 0.36 0.39 0.41 0.37 0.37 0.34 0.29 0.21
0.60 0.60 0.57 0.55 0.56 0.58 0.57 0.55 0.54 0.52 0.49 0.51 0.54 0.56 0.53 0.53 0.37 0.54 0.66 0.55 0.19 0.11 0.16 0.14 0.18 0.28 0.28 0.27 0.31 0.32 0.31 0.31 0.28 0.24 0.22 0.24 0.26 0.32 0.38 0.32 0.40 0.40 0.34 0.25 0.21 0.21 0.20
0.56 0.56 0.58 0.59 0.56 0.53 0.53 0.59 0.61 0.55 0.51 0.52 0.56 0.55 0.51 0.49 0.47 0.57 0.58 0.37 0.13 0.12 0.12 0.19 0.21 0.24 0.22 0.31 0.32 0.32 0.31 0.28 0.31 0.31 0.26 0.21 0.17 0.27 0.36 0.34 0.31 0.34 0.34 0.27 0.18 0.17 0.18
0.55 0.53 0.55 0.54 0.55 0.53 0.52 0.55 0.61 0.58 0.54 0.54 0.55 0.48 0.45 0.44 0.49 0.57 0.41 0.24 0.13 0.14 0.18 0.15 0.12 0.11 0.13 0.17 0.24 0.27 0.30 0.30 0.30 0.32 0.26 0.23 0.21 0.32 0.34 0.36 0.35 0.31 0.28 0.35 0.26 0.27 0.22
0.57 0.56 0.57 0.56 0.54 0.51 0.52 0.57 0.59 0.59 0.56 0.57 0.43 0.39 0.34 0.49 0.61 0.49 0.32 0.20 0.18 0.19 0.19 0.22 0.15 0.19 0.15 0.18 0.20 0.23 0.25 0.33 0.31 0.35 0.37 0.29 0.21 0.32 0.35 0.36 0.34 0.33 0.37 0.25 0.29 0.18 0.16
0.58 0.56 0.58 0.58 0.54 0.52 0.54 0.55 0.58 0.59 0.58 0.56 0.42 0.28 0.37 0.54 0.64 0.43 0.24 0.20 0.22 0.26 0.24 0.21 0.16 0.19 0.21 0.22 0.25 0.26 0.27 0.34 0.37 0.35 0.37 0.34 0.30 0.29 0.34 0.29 0.27 0.28 0.28 0.27 0.29 0.28 0.20
0.58 0.59 0.56 0.56 0.55 0.53 0.52 0.53 0.54 0.56 0.57 0.55 0.39 0.21 0.43 0.60 0.32 0.38 0.27 0.24 0.29 0.29 0.34 0.25 0.26 0.26 0.25 0.28 0.28 0.28 0.28 0.34 0.41 0.39 0.34 0.41 0.36 0.26 0.28 0.37 0.36 0.33 0.29 0.30 0.25 0.23 0.25
0.54 0.54 0.56 0.55 0.55 0.54 0.53 0.52 0.52 0.52 0.55 0.49 0.34 0.30 0.48 0.55 0.25 0.22 0.30 0.27 0.31 0.26 0.31 0.31 0.30 0.33 0.32 0.27 0.27 0.30 0.32 0.42 0.44 0.38 0.33 0.39 0.33 0.24 0.25 0.31 0.36 0.32 0.32 0.32 0.32 0.31 0.24
0.55 0.55 0.54 0.54 0.54 0.52 0.51 0.50 0.50 0.51 0.52 0.50 0.38 0.26 0.35 0.38 0.44 0.29 0.24 0.23 0.24 0.31 0.37 0.39 0.36 0.37 0.34 0.32 0.35 0.34 0.33 0.37 0.41 0.40 0.43 0.42 0.34 0.28 0.21 0.25 0.30 0.28 0.32 0.34 0.31 0.25 0.25
0.52 0.54 0.54 0.54 0.52 0.51 0.50 0.51 0.50 0.49 0.52 0.50 0.40 0.31 0.33 0.23 0.23 0.29 0.31 0.27 0.23 0.25 0.34 0.37 0.31 0.32 0.33 0.28 0.30 0.31 0.36 0.36 0.35 0.40 0.42 0.41 0.30 0.32 0.33 0.34 0.34 0.35 0.35 0.33 0.27 0.26 0.22
0.50 0.51 0.50 0.50 0.49 0.49 0.49 0.49 0.48 0.48 0.50 0.44 0.33 0.30 0.38 0.32 0.28 0.23 0.29 0.21 0.21 0.21 0.30 0.31 0.30 0.34 0.37 0.31 0.31 0.31 0.38 0.33 0.31 0.40 0.40 0.41 0.31 0.33 0.29 0.32 0.31 0.29 0.31 0.28 0.24 0.23 0.22
0.47 0.48 0.48 0.47 0.47 0.46 0.45 0.46 0.46 0.47 0.49 0.40 0.44 0.44 0.39 0.33 0.31 0.28 0.23 0.20 0.23 0.30 0.33 0.33 0.34 0.39 0.34 0.35 0.45 0.48 0.51 0.47 0.43 0.39 0.38 0.37 0.34 0.28 0.22 0.27 0.26 0.21 0.25 0.24 0.25 0.27 0.25
0.45 0.46 0.46 0.46 0.46 0.45 0.45 0.45 0.46 0.46 0.46 0.43 0.47 0.42 0.34 0.25 0.32 0.33 0.31 0.29 0.30 0.34 0.29 0.36 0.42 0.39 0.44 0.53 0.52 0.52 0.53 0.47 0.49 0.47 0.43 0.34 0.31 0.29 0.24 0.23 0.16 0.24 0.31 0.28 0.24 0.26 0.28
0.43 0.43 0.44 0.45 0.46 0.45 0.47 0.47 0.47 0.48 0.48 0.43 0.48 0.45 0.37 0.26 0.32 0.36 0.36 0.37 0.39 0.38 0.38 0.40 0.46 0.52 0.59 0.50 0.40 0.35 0.32 0.34 0.35 0.40 0.38 0.37 0.31 0.25 0.20 0.19 0.21 0.25 0.27 0.24 0.20 0.19 0.25
0.42 0.43 0.44 0.44 0.44 0.45 0.47 0.49 0.49 0.49 0.49 0.46 0.47 0.52 0.47 0.29 0.26 0.35 0.32 0.38 0.33 0.30 0.36 0.43 0.55 0.59 0.54 0.43 0.37 0.25 0.21 0.27 0.26 0.29 0.35 0.36 0.35 0.26 0.21 0.16 0.12 0.17 0.24 0.27 0.26 0.14 0.28
0.36 0.38 0.38 0.38 0.39 0.43 0.45 0.49 0.49 0.49 0.49 0.48 0.47 0.53 0.48 0.31 0.36 0.41 0.28 0.33 0.41 0.38 0.33 0.39 0.47 0.48 0.51 0.35 0.29 0.24 0.22 0.27 0.21 0.21 0.23 0.25 0.25 0.20 0.18 0.15 0.17 0.23 0.27 0.30 0.16 0.17 0.30
0.38 0.38 0.39 0.40 0.41 0.44 0.45 0.46 0.45 0.45 0.48 0.51 0.47 0.57 0.47 0.36 0.40 0.45 0.44 0.40 0.40 0.39 0.33 0.40 0.41 0.43 0.40 0.30 0.27 0.24 0.23 0.25 0.23 0.23 0.19 0.18 0.18 0.17 0.17 0.12 0.09 0.27 0.29 0.22 0.28 0.33 0.34
0.50 0.52 0.52 0.49 0.43 0.42 0.44 0.41 0.41 0.43 0.51 0.53 0.41 0.57 0.62 0.47 0.43 0.54 0.49 0.52 0.47 0.48 0.43 0.44 0.40 0.38 0.38 0.32 0.30 0.30 0.27 0.29 0.25 0.19 0.29 0.19 0.20 0.18 0.19 0.17 0.28 0.33 0.33 0.36 0.36 0.35 0.36